Observation data for Sterling City on 12/08/2018      Previous  Date       Current Mesonet Observations  Soil Data  Daily Summary Page  Observations in Plain Language
KSC1 080600Z 35005KT 02/02 A3023 RMK A01 T00150015  RH  100%=      5-min Rain = 0
KSC1 080601Z 35007KT 02/02 A3023 RMK A01 T00150015  RH  100%=      5-min Rain = 0
KSC1 080602Z 36006KT 02/02 A3024 RMK A01 T00150015  RH  100%=      5-min Rain = 0
KSC1 080603Z 35007KT 02/02 A3023 RMK A01 T00150015  RH  100%=      5-min Rain = 0
KSC1 080604Z 36008KT 02/01 A3023 RMK A01 T00150014  RH  100%=      5-min Rain = 0
KSC1 080605Z 36008KT 01/01 A3024 RMK A01 T00140014  RH  100%=      5-min Rain = 0
KSC1 080606Z 35008KT 01/01 A3024 RMK A01 T00140014  RH  100%=      5-min Rain = 0
KSC1 080607Z 36006KT 01/01 A3024 RMK A01 T00140014  RH  100%=      5-min Rain = 0
KSC1 080608Z 36008KT 01/01 A3023 RMK A01 T00140014  RH  100%=      5-min Rain = 0.01
KSC1 080609Z 36009KT 01/01 A3023 RMK A01 T00140014  RH  100%=      5-min Rain = 0
KSC1 080610Z 01008KT 02/01 A3024 RMK A01 T00150014  RH  100%=      5-min Rain = 0
KSC1 080611Z 36006KT 01/01 A3024 RMK A01 T00140014  RH  100%=      5-min Rain = 0
KSC1 080612Z 00004KT 01/01 A3024 RMK A01 T00140014  RH  100%=      5-min Rain = 0
KSC1 080613Z 35006KT 01/01 A3024 RMK A01 T00140014  RH  100%=      5-min Rain = 0
KSC1 080614Z 36007KT 02/01 A3023 RMK A01 T00150014  RH  100%=      5-min Rain = 0
KSC1 080615Z 00006KT 01/01 A3024 RMK A01 T00140014  RH  100%=      5-min Rain = 0
KSC1 080616Z 01008KT 01/01 A3024 RMK A01 T00140014  RH  100%=      5-min Rain = 0
KSC1 080617Z 00007KT 01/01 A3024 RMK A01 T00140013  RH  100%=      5-min Rain = 0
KSC1 080618Z 00008KT 01/01 A3024 RMK A01 T00140013  RH  100%=      5-min Rain = 0
KSC1 080619Z 00007KT 01/01 A3024 RMK A01 T00140013  RH  100%=      5-min Rain = 0
KSC1 080620Z 00005KT 01/01 A3023 RMK A01 T00140014  RH  100%=      5-min Rain = 0
KSC1 080621Z 00007KT 01/01 A3023 RMK A01 T00140014  RH  100%=      5-min Rain = 0
KSC1 080622Z 35007KT 01/01 A3023 RMK A01 T00140013  RH  100%=      5-min Rain = 0
KSC1 080623Z 00007KT 01/01 A3023 RMK A01 T00140013  RH  100%=      5-min Rain = 0.01
KSC1 080624Z 35006KT 01/01 A3023 RMK A01 T00140013  RH  100%=      5-min Rain = 0
KSC1 080625Z 01007KT 01/01 A3023 RMK A01 T00130013  RH  100%=      5-min Rain = 0
KSC1 080626Z 00009KT 01/01 A3023 RMK A01 T00140013  RH  100%=      5-min Rain = 0
KSC1 080627Z 00008KT 01/01 A3023 RMK A01 T00130013  RH  100%=      5-min Rain = 0
KSC1 080628Z 00007KT 01/01 A3023 RMK A01 T00140013  RH  100%=      5-min Rain = 0
KSC1 080629Z 36007KT 01/01 A3023 RMK A01 T00130013  RH  100%=      5-min Rain = 0
KSC1 080630Z 36007KT 01/01 A3023 RMK A01 T00130013  RH  100%=      5-min Rain = 0
KSC1 080631Z 35006KT 01/01 A3023 RMK A01 T00130013  RH  100%=      5-min Rain = 0
KSC1 080632Z 36007KT 01/01 A3023 RMK A01 T00130013  RH  100%=      5-min Rain = 0
KSC1 080633Z 36007KT 01/01 A3023 RMK A01 T00140013  RH  100%=      5-min Rain = 0
KSC1 080634Z 36005KT 01/01 A3023 RMK A01 T00140013  RH  100%=      5-min Rain = 0
KSC1 080635Z 36004KT 01/01 A3023 RMK A01 T00130013  RH  100%=      5-min Rain = 0
KSC1 080636Z 35005KT 01/01 A3023 RMK A01 T00130013  RH  100%=      5-min Rain = 0
KSC1 080637Z 35006KT 01/01 A3023 RMK A01 T00130013  RH  100%=      5-min Rain = 0
KSC1 080638Z 34006KT 01/01 A3023 RMK A01 T00130013  RH  100%=      5-min Rain = 0
KSC1 080639Z 33006KT 01/01 A3023 RMK A01 T00140013  RH  100%=      5-min Rain = 0
KSC1 080640Z 34005KT 01/01 A3023 RMK A01 T00130013  RH  100%=      5-min Rain = 0.01
KSC1 080641Z 33005KT 01/01 A3023 RMK A01 T00140014  RH  100%=      5-min Rain = 0
KSC1 080642Z 34006KT 01/01 A3023 RMK A01 T00140014  RH  100%=      5-min Rain = 0
KSC1 080643Z 34006KT 01/01 A3023 RMK A01 T00140014  RH  100%=      5-min Rain = 0
KSC1 080644Z 33007KT 01/01 A3023 RMK A01 T00140014  RH  100%=      5-min Rain = 0
KSC1 080645Z 34007KT 01/01 A3023 RMK A01 T00140014  RH  100%=      5-min Rain = 0
KSC1 080646Z 34007KT 01/01 A3023 RMK A01 T00140014  RH  100%=      5-min Rain = 0
KSC1 080647Z 34006KT 01/01 A3023 RMK A01 T00130013  RH  100%=      5-min Rain = 0.01
KSC1 080648Z 34007KT 01/01 A3023 RMK A01 T00130013  RH  100%=      5-min Rain = 0
KSC1 080649Z 34006KT 01/01 A3023 RMK A01 T00140013  RH  100%=      5-min Rain = 0
KSC1 080650Z 35006KT 01/01 A3023 RMK A01 T00130013  RH  100%=      5-min Rain = 0
KSC1 080651Z 34006KT 01/01 A3023 RMK A01 T00130013  RH  100%=      5-min Rain = 0
KSC1 080652Z 34005KT 01/01 A3023 RMK A01 T00130013  RH  100%=      5-min Rain = 0
KSC1 080653Z 34006KT 01/01 A3023 RMK A01 T00140013  RH  100%=      5-min Rain = 0
KSC1 080654Z 33007KT 01/01 A3023 RMK A01 T00130013  RH  100%=      5-min Rain = 0.01
KSC1 080655Z 34006KT 01/01 A3023 RMK A01 T00130013  RH  100%=      5-min Rain = 0
KSC1 080656Z 34008KT 01/01 A3023 RMK A01 T00130013  RH  100%=      5-min Rain = 0
KSC1 080657Z 34007KT 01/01 A3023 RMK A01 T00130013  RH  100%=      5-min Rain = 0
KSC1 080658Z 33009KT 01/01 A3023 RMK A01 T00130013  RH  100%=      5-min Rain = 0
KSC1 080659Z 33009KT 01/01 A3023 RMK A01 T00120012  RH  100%=      5-min Rain = 0.01
KSC1 080700Z 34008KT 01/01 A3023 RMK A01 T00120012  RH  100%=      5-min Rain = 0
KSC1 080701Z 34006KT 01/01 A3023 RMK A01 T00120012  RH  100%=      5-min Rain = 0
KSC1 080702Z 33007KT 01/01 A3023 RMK A01 T00120012  RH  100%=      5-min Rain = 0
KSC1 080703Z 32007KT 01/01 A3023 RMK A01 T00120012  RH  100%=      5-min Rain = 0
KSC1 080704Z 32009KT 01/01 A3023 RMK A01 T00120012  RH  100%=      5-min Rain = 0
KSC1 080705Z 32007KT 01/01 A3023 RMK A01 T00120012  RH  100%=      5-min Rain = 0
KSC1 080706Z 32007KT 01/01 A3024 RMK A01 T00120012  RH  100%=      5-min Rain = 0
KSC1 080707Z 31008KT 01/01 A3024 RMK A01 T00110011  RH  100%=      5-min Rain = 0
KSC1 080708Z 32007KT 01/01 A3024 RMK A01 T00120011  RH  100%=      5-min Rain = 0
KSC1 080709Z 31007KT 01/01 A3024 RMK A01 T00120011  RH  100%=      5-min Rain = 0.01
KSC1 080710Z 31008KT 01/01 A3024 RMK A01 T00110011  RH  100%=      5-min Rain = 0
KSC1 080711Z 32008KT 01/01 A3024 RMK A01 T00110011  RH  100%=      5-min Rain = 0
KSC1 080712Z 32009KT 01/01 A3024 RMK A01 T00110011  RH  100%=      5-min Rain = 0
KSC1 080713Z 32008KT 01/01 A3023 RMK A01 T00110011  RH  100%=      5-min Rain = 0
KSC1 080714Z 31008KT 01/01 A3024 RMK A01 T00110011  RH  100%=      5-min Rain = 0
KSC1 080715Z 32008KT 01/01 A3024 RMK A01 T00110010  RH  100%=      5-min Rain = 0
KSC1 080716Z 32007KT 01/01 A3024 RMK A01 T00110010  RH  100%=      5-min Rain = 0.01
KSC1 080717Z 32009KT 01/01 A3024 RMK A01 T00110011  RH  100%=      5-min Rain = 0
KSC1 080718Z 32009KT 01/01 A3024 RMK A01 T00100010  RH  100%=      5-min Rain = 0
KSC1 080719Z 32007KT 01/01 A3024 RMK A01 T00100010  RH  100%=      5-min Rain = 0
KSC1 080720Z 31007KT 01/01 A3024 RMK A01 T00100010  RH  100%=      5-min Rain = 0
KSC1 080721Z 33008KT 01/01 A3023 RMK A01 T00100010  RH  100%=      5-min Rain = 0
KSC1 080722Z 32008KT 01/01 A3023 RMK A01 T00100010  RH  100%=      5-min Rain = 0.01
KSC1 080723Z 32008KT 01/01 A3023 RMK A01 T00100010  RH  100%=      5-min Rain = 0
KSC1 080724Z 32008KT 01/01 A3023 RMK A01 T00100010  RH  100%=      5-min Rain = 0
KSC1 080725Z 32009KT 01/01 A3023 RMK A01 T00100010  RH  100%=      5-min Rain = 0
KSC1 080726Z 33010KT 01/01 A3023 RMK A01 T00100010  RH  100%=      5-min Rain = 0
KSC1 080727Z 33008KT 01/01 A3023 RMK A01 T00090009  RH  100%=      5-min Rain = 0
KSC1 080728Z 32009KT 01/01 A3023 RMK A01 T00090009  RH  100%=      5-min Rain = 0.01
KSC1 080729Z 34007KT 01/01 A3023 RMK A01 T00090009  RH  100%=      5-min Rain = 0
KSC1 080730Z 34007KT 01/01 A3023 RMK A01 T00090009  RH  100%=      5-min Rain = 0
KSC1 080731Z 34007G12KT 01/01 A3023 RMK A01 T00090009  RH  100%=      5-min Rain = 0
KSC1 080732Z 34009KT 01/01 A3023 RMK A01 T00090009  RH  100%=      5-min Rain = 0
KSC1 080733Z 33008KT 01/01 A3023 RMK A01 T00090009  RH  100%=      5-min Rain = 0
KSC1 080734Z 33008KT 01/01 A3023 RMK A01 T00090009  RH  100%=      5-min Rain = 0
KSC1 080735Z 34009KT 01/01 A3023 RMK A01 T00090009  RH  100%=      5-min Rain = 0
KSC1 080736Z 33007KT 01/01 A3023 RMK A01 T00090009  RH  100%=      5-min Rain = 0
KSC1 080737Z 32007KT 01/01 A3023 RMK A01 T00090009  RH  100%=      5-min Rain = 0
KSC1 080738Z 33007KT 01/01 A3023 RMK A01 T00090009  RH  100%=      5-min Rain = 0
KSC1 080739Z 33009KT 01/01 A3023 RMK A01 T00100010  RH  100%=      5-min Rain = 0.01
KSC1 080740Z 34007KT 01/01 A3023 RMK A01 T00100010  RH  100%=      5-min Rain = 0
KSC1 080741Z 34008KT 01/01 A3023 RMK A01 T00100010  RH  100%=      5-min Rain = 0
KSC1 080742Z 34007KT 01/01 A3023 RMK A01 T00100009  RH  100%=      5-min Rain = 0
KSC1 080743Z 34008KT 01/01 A3023 RMK A01 T00100010  RH  100%=      5-min Rain = 0
KSC1 080744Z 34007KT 01/01 A3023 RMK A01 T00100010  RH  100%=      5-min Rain = 0
KSC1 080745Z 34007KT 01/01 A3023 RMK A01 T00100010  RH  100%=      5-min Rain = 0
KSC1 080746Z 34008KT 01/01 A3023 RMK A01 T00100010  RH  100%=      5-min Rain = 0
KSC1 080747Z 35007KT 01/01 A3023 RMK A01 T00100010  RH  100%=      5-min Rain = 0
KSC1 080748Z 34009KT 01/01 A3022 RMK A01 T00100010  RH  100%=      5-min Rain = 0
KSC1 080749Z 35010KT 01/01 A3022 RMK A01 T00100009  RH  100%=      5-min Rain = 0
KSC1 080750Z 35008KT 01/01 A3022 RMK A01 T00090009  RH  100%=      5-min Rain = 0
KSC1 080751Z 35007KT 01/01 A3022 RMK A01 T00090009  RH  100%=      5-min Rain = 0
KSC1 080752Z 34009KT 01/01 A3022 RMK A01 T00100009  RH  100%=      5-min Rain = 0
KSC1 080753Z 35010KT 01/01 A3022 RMK A01 T00090009  RH  100%=      5-min Rain = 0.01
KSC1 080754Z 35011KT 01/01 A3022 RMK A01 T00090009  RH  100%=      5-min Rain = 0
KSC1 080755Z 35010KT 01/01 A3022 RMK A01 T00090009  RH  100%=      5-min Rain = 0
KSC1 080756Z 35009G14KT 01/01 A3022 RMK A01 T00090009  RH  100%=      5-min Rain = 0
KSC1 080757Z 35008KT 01/01 A3022 RMK A01 T00090009  RH  100%=      5-min Rain = 0
KSC1 080758Z 35007KT 01/01 A3022 RMK A01 T00090009  RH  100%=      5-min Rain = 0
KSC1 080759Z 35008KT 01/01 A3022 RMK A01 T00090009  RH  100%=      5-min Rain = 0
KSC1 080800Z 35006KT 01/01 A3022 RMK A01 T00090009  RH  100%=      5-min Rain = 0.01
KSC1 080801Z 35006KT 01/01 A3022 RMK A01 T00090009  RH  100%=      5-min Rain = 0
KSC1 080802Z 36007KT 01/01 A3022 RMK A01 T00090009  RH  100%=      5-min Rain = 0
KSC1 080803Z 35006KT 01/01 A3022 RMK A01 T00090009  RH  100%=      5-min Rain = 0.01
KSC1 080804Z 35007KT 01/01 A3022 RMK A01 T00090009  RH  100%=      5-min Rain = 0
KSC1 080805Z 35006KT 01/01 A3022 RMK A01 T00090009  RH  100%=      5-min Rain = 0
KSC1 080806Z 36007KT 01/01 A3022 RMK A01 T00090009  RH  100%=      5-min Rain = 0
KSC1 080807Z 35006KT 01/01 A3022 RMK A01 T00090009  RH  100%=      5-min Rain = 0.01
KSC1 080808Z 36006KT 01/01 A3022 RMK A01 T00090009  RH  100%=      5-min Rain = 0
KSC1 080809Z 35007KT 01/01 A3022 RMK A01 T00090009  RH  100%=      5-min Rain = 0
KSC1 080810Z 35007KT 01/01 A3022 RMK A01 T00090009  RH  100%=      5-min Rain = 0.01
KSC1 080811Z 35005KT 01/01 A3022 RMK A01 T00090009  RH  100%=      5-min Rain = 0
KSC1 080812Z 35006KT 01/01 A3022 RMK A01 T00090009  RH  100%=      5-min Rain = 0
KSC1 080813Z 35007KT 01/01 A3022 RMK A01 T00090009  RH  100%=      5-min Rain = 0
KSC1 080814Z 34006KT 01/01 A3022 RMK A01 T00090009  RH  100%=      5-min Rain = 0.01
KSC1 080815Z 35006KT 01/01 A3022 RMK A01 T00090009  RH  100%=      5-min Rain = 0
KSC1 080816Z 35008KT 01/01 A3022 RMK A01 T00090009  RH  100%=      5-min Rain = 0
KSC1 080817Z 35006KT 01/01 A3022 RMK A01 T00090009  RH  100%=      5-min Rain = 0.01
KSC1 080818Z 34006KT 01/01 A3022 RMK A01 T00090009  RH  100%=      5-min Rain = 0
KSC1 080819Z 34007KT 01/01 A3022 RMK A01 T00090009  RH  100%=      5-min Rain = 0.01
KSC1 080820Z 34007KT 01/01 A3022 RMK A01 T00090009  RH  100%=      5-min Rain = 0
KSC1 080821Z 34005KT 01/01 A3022 RMK A01 T00090009  RH  100%=      5-min Rain = 0
KSC1 080822Z 35005G10KT 01/01 A3022 RMK A01 T00090009  RH  100%=      5-min Rain = 0.01
KSC1 080823Z 35008KT 01/01 A3022 RMK A01 T00090009  RH  100%=      5-min Rain = 0
KSC1 080824Z 34008KT 01/01 A3022 RMK A01 T00090009  RH  100%=      5-min Rain = 0
KSC1 080825Z 35007KT 01/01 A3022 RMK A01 T00090009  RH  100%=      5-min Rain = 0
KSC1 080826Z 36006KT 01/01 A3022 RMK A01 T00100009  RH  100%=      5-min Rain = 0.01
KSC1 080827Z 34005KT 01/01 A3022 RMK A01 T00090009  RH  100%=      5-min Rain = 0
KSC1 080828Z 34006KT 01/01 A3022 RMK A01 T00090009  RH  100%=      5-min Rain = 0
KSC1 080829Z 34005KT 01/01 A3022 RMK A01 T00090009  RH  100%=      5-min Rain = 0
KSC1 080830Z 34006KT 01/01 A3022 RMK A01 T00090009  RH  100%=      5-min Rain = 0.01
KSC1 080831Z 35008KT 01/01 A3022 RMK A01 T00090009  RH  100%=      5-min Rain = 0
KSC1 080832Z 34007KT 01/01 A3022 RMK A01 T00090009  RH  100%=      5-min Rain = 0
KSC1 080833Z 34009KT 01/01 A3022 RMK A01 T00090009  RH  100%=      5-min Rain = 0
KSC1 080834Z 34007KT 01/01 A3022 RMK A01 T00090009  RH  100%=      5-min Rain = 0
KSC1 080835Z 35006KT 01/01 A3022 RMK A01 T00080008  RH  100%=      5-min Rain = 0
KSC1 080836Z 34006KT 01/01 A3022 RMK A01 T00080008  RH  100%=      5-min Rain = 0
KSC1 080837Z 34006KT 01/01 A3022 RMK A01 T00080008  RH  100%=      5-min Rain = 0.01
KSC1 080838Z 34008KT 01/01 A3022 RMK A01 T00080008  RH  100%=      5-min Rain = 0
KSC1 080839Z 33007KT 01/01 A3022 RMK A01 T00080008  RH  100%=      5-min Rain = 0
KSC1 080840Z 34007KT 01/01 A3022 RMK A01 T00080008  RH  100%=      5-min Rain = 0
KSC1 080841Z 34008KT 01/01 A3022 RMK A01 T00080008  RH  100%=      5-min Rain = 0.01
KSC1 080842Z 35006KT 01/01 A3022 RMK A01 T00080008  RH  100%=      5-min Rain = 0
KSC1 080843Z 35007KT 01/01 A3022 RMK A01 T00080008  RH  100%=      5-min Rain = 0
KSC1 080844Z 35008KT 01/01 A3022 RMK A01 T00080008  RH  100%=      5-min Rain = 0.01
KSC1 080845Z 35009KT 01/01 A3022 RMK A01 T00080008  RH  100%=      5-min Rain = 0
KSC1 080846Z 34007KT 01/01 A3022 RMK A01 T00080008  RH  100%=      5-min Rain = 0
KSC1 080847Z 34008KT 01/01 A3022 RMK A01 T00080007  RH  100%=      5-min Rain = 0.01
KSC1 080848Z 35009KT 01/01 A3022 RMK A01 T00070007  RH  100%=      5-min Rain = 0
KSC1 080849Z 34007KT 01/01 A3022 RMK A01 T00070007  RH  100%=      5-min Rain = 0
KSC1 080850Z 35008KT 01/01 A3022 RMK A01 T00070007  RH  100%=      5-min Rain = 0
KSC1 080851Z 35007KT 01/01 A3022 RMK A01 T00070007  RH  100%=      5-min Rain = 0.01
KSC1 080852Z 35007KT 01/01 A3022 RMK A01 T00070007  RH  100%=      5-min Rain = 0
KSC1 080853Z 35007KT 01/01 A3022 RMK A01 T00070007  RH  100%=      5-min Rain = 0
KSC1 080854Z 35009KT 01/01 A3022 RMK A01 T00070007  RH  100%=      5-min Rain = 0
KSC1 080855Z 35010KT 01/01 A3022 RMK A01 T00070007  RH  100%=      5-min Rain = 0.01
KSC1 080856Z 35009KT 01/01 A3021 RMK A01 T00070007  RH  100%=      5-min Rain = 0
KSC1 080857Z 35009KT 01/01 A3021 RMK A01 T00070007  RH  100%=      5-min Rain = 0
KSC1 080858Z 34007KT 01/01 A3021 RMK A01 T00070007  RH  100%=      5-min Rain = 0
KSC1 080859Z 35006KT 01/01 A3022 RMK A01 T00070007  RH  100%=      5-min Rain = 0.01
KSC1 080900Z 34006KT 01/01 A3022 RMK A01 T00070007  RH  100%=      5-min Rain = 0
KSC1 080901Z 34006KT 01/01 A3022 RMK A01 T00070007  RH  100%=      5-min Rain = 0.01
KSC1 080902Z 35009KT 01/01 A3022 RMK A01 T00070007  RH  100%=      5-min Rain = 0
KSC1 080903Z 34009KT 01/01 A3022 RMK A01 T00070007  RH  100%=      5-min Rain = 0.01
KSC1 080904Z 34008KT 01/01 A3022 RMK A01 T00060006  RH  100%=      5-min Rain = 0
KSC1 080905Z 34007KT 01/01 A3022 RMK A01 T00070006  RH  100%=      5-min Rain = 0.01
KSC1 080906Z 34007KT 01/01 A3021 RMK A01 T00070006  RH  100%=      5-min Rain = 0
KSC1 080907Z 34008KT 01/01 A3022 RMK A01 T00070006  RH  100%=      5-min Rain = 0
KSC1 080908Z 34009KT 01/01 A3022 RMK A01 T00060006  RH  100%=      5-min Rain = 0.01
KSC1 080909Z 35007KT 01/01 A3022 RMK A01 T00060006  RH  100%=      5-min Rain = 0
KSC1 080910Z 33006KT 01/01 A3022 RMK A01 T00060006  RH  100%=      5-min Rain = 0
KSC1 080911Z 33006KT 01/01 A3022 RMK A01 T00060006  RH  100%=      5-min Rain = 0.01
KSC1 080912Z 34008KT 01/01 A3022 RMK A01 T00060006  RH  100%=      5-min Rain = 0
KSC1 080913Z 33006KT 01/01 A3022 RMK A01 T00060006  RH  100%=      5-min Rain = 0
KSC1 080914Z 34007KT 01/01 A3022 RMK A01 T00060006  RH  100%=      5-min Rain = 0
KSC1 080915Z 33006KT 01/01 A3022 RMK A01 T00060006  RH  100%=      5-min Rain = 0.01
KSC1 080916Z 34006KT 01/01 A3022 RMK A01 T00060006  RH  100%=      5-min Rain = 0
KSC1 080917Z 33006KT 01/01 A3022 RMK A01 T00060005  RH  100%=      5-min Rain = 0
KSC1 080918Z 33005KT 01/01 A3022 RMK A01 T00060006  RH  100%=      5-min Rain = 0.01
KSC1 080919Z 33005KT 01/01 A3022 RMK A01 T00060006  RH  100%=      5-min Rain = 0
KSC1 080920Z 34007KT 01/01 A3022 RMK A01 T00060005  RH  100%=      5-min Rain = 0
KSC1 080921Z 34006KT 01/01 A3022 RMK A01 T00060005  RH  100%=      5-min Rain = 0
KSC1 080922Z 33007KT 01/01 A3022 RMK A01 T00060006  RH  100%=      5-min Rain = 0.01
KSC1 080923Z 34008KT 01/01 A3022 RMK A01 T00060005  RH  100%=      5-min Rain = 0
KSC1 080924Z 34006KT 01/01 A3022 RMK A01 T00060006  RH  100%=      5-min Rain = 0
KSC1 080925Z 33007KT 01/01 A3022 RMK A01 T00060005  RH  100%=      5-min Rain = 0
KSC1 080926Z 33009KT 01/01 A3022 RMK A01 T00060005  RH  100%=      5-min Rain = 0.01
KSC1 080927Z 34008KT 01/01 A3022 RMK A01 T00050005  RH  100%=      5-min Rain = 0
KSC1 080928Z 33008KT 01/01 A3022 RMK A01 T00050005  RH  100%=      5-min Rain = 0
KSC1 080929Z 34007KT 01/01 A3023 RMK A01 T00050005  RH  100%=      5-min Rain = 0
KSC1 080930Z 34007KT 01/01 A3023 RMK A01 T00050005  RH  100%=      5-min Rain = 0
KSC1 080931Z 33010KT 01/01 A3023 RMK A01 T00050005  RH  100%=      5-min Rain = 0
KSC1 080932Z 33009KT 01/01 A3023 RMK A01 T00050005  RH  100%=      5-min Rain = 0
KSC1 080933Z 33008KT 01/01 A3023 RMK A01 T00050005  RH  100%=      5-min Rain = 0
KSC1 080934Z 33009KT 01/01 A3023 RMK A01 T00050005  RH  100%=      5-min Rain = 0
KSC1 080935Z 33010KT 01/01 A3023 RMK A01 T00050005  RH  100%=      5-min Rain = 0.01
KSC1 080936Z 33007KT 01/01 A3023 RMK A01 T00050005  RH  100%=      5-min Rain = 0
KSC1 080937Z 33008KT 01/01 A3023 RMK A01 T00050005  RH  100%=      5-min Rain = 0
KSC1 080938Z 33009KT 01/01 A3023 RMK A01 T00060005  RH  100%=      5-min Rain = 0.01
KSC1 080939Z 33006KT 01/01 A3023 RMK A01 T00060005  RH  100%=      5-min Rain = 0
KSC1 080940Z 33006KT 01/01 A3023 RMK A01 T00060005  RH  100%=      5-min Rain = 0
KSC1 080941Z 33006KT 01/01 A3023 RMK A01 T00060005  RH  100%=      5-min Rain = 0
KSC1 080942Z 33006KT 01/01 A3023 RMK A01 T00060005  RH  100%=      5-min Rain = 0.01
KSC1 080943Z 32006KT 01/01 A3023 RMK A01 T00060005  RH  100%=      5-min Rain = 0
KSC1 080944Z 32005KT 01/01 A3023 RMK A01 T00060005  RH  100%=      5-min Rain = 0.01
KSC1 080945Z 32005KT 01/01 A3023 RMK A01 T00060005  RH  100%=      5-min Rain = 0
KSC1 080946Z 32007KT 01/01 A3023 RMK A01 T00060005  RH  100%=      5-min Rain = 0
KSC1 080947Z 32006KT 01/01 A3023 RMK A01 T00060005  RH  100%=      5-min Rain = 0.01
KSC1 080948Z 33008KT 01/01 A3023 RMK A01 T00060005  RH  100%=      5-min Rain = 0
KSC1 080949Z 33009KT 01/01 A3023 RMK A01 T00060005  RH  100%=      5-min Rain = 0
KSC1 080950Z 34009KT 01/01 A3023 RMK A01 T00050005  RH  100%=      5-min Rain = 0.01
KSC1 080951Z 34007KT 01/01 A3023 RMK A01 T00060006  RH  100%=      5-min Rain = 0
KSC1 080952Z 34008KT 01/01 A3023 RMK A01 T00060005  RH  100%=      5-min Rain = 0
KSC1 080953Z 34009KT 01/01 A3023 RMK A01 T00060005  RH  100%=      5-min Rain = 0
KSC1 080954Z 34007KT 01/01 A3023 RMK A01 T00050005  RH  100%=      5-min Rain = 0
KSC1 080955Z 35007KT 01/01 A3023 RMK A01 T00050005  RH  100%=      5-min Rain = 0.01
KSC1 080956Z 35010KT 01/01 A3023 RMK A01 T00050005  RH  100%=      5-min Rain = 0
KSC1 080957Z 35010KT 01/01 A3022 RMK A01 T00050005  RH  100%=      5-min Rain = 0
KSC1 080958Z 36007KT 01/01 A3022 RMK A01 T00050005  RH  100%=      5-min Rain = 0
KSC1 080959Z 36007KT 01/01 A3022 RMK A01 T00050005  RH  100%=      5-min Rain = 0
KSC1 081000Z 34008KT 01/01 A3022 RMK A01 T00050005  RH  100%=      5-min Rain = 0.01
KSC1 081001Z 34009KT 01/01 A3022 RMK A01 T00050005  RH  100%=      5-min Rain = 0
KSC1 081002Z 34008KT 01/01 A3022 RMK A01 T00050005  RH  100%=      5-min Rain = 0
KSC1 081003Z 34007KT 01/01 A3022 RMK A01 T00050005  RH  100%=      5-min Rain = 0
KSC1 081004Z 34008KT 01/01 A3022 RMK A01 T00050005  RH  100%=      5-min Rain = 0
KSC1 081005Z 35007KT 01/01 A3022 RMK A01 T00050005  RH  100%=      5-min Rain = 0
KSC1 081006Z 36007KT 01/01 A3022 RMK A01 T00050005  RH  100%=      5-min Rain = 0
KSC1 081007Z 35007KT 01/01 A3022 RMK A01 T00050005  RH  100%=      5-min Rain = 0.01
KSC1 081008Z 00008KT 01/01 A3022 RMK A01 T00050005  RH  100%=      5-min Rain = 0
KSC1 081009Z 36007KT 01/01 A3022 RMK A01 T00050005  RH  100%=      5-min Rain = 0
KSC1 081010Z 36007KT 01/01 A3022 RMK A01 T00050005  RH  100%=      5-min Rain = 0
KSC1 081011Z 36008KT 01/01 A3022 RMK A01 T00050005  RH  100%=      5-min Rain = 0
KSC1 081012Z 35007KT 01/01 A3022 RMK A01 T00050005  RH  100%=      5-min Rain = 0.01
KSC1 081013Z 36007KT 01/01 A3022 RMK A01 T00050005  RH  100%=      5-min Rain = 0
KSC1 081014Z 36009KT 01/01 A3022 RMK A01 T00050005  RH  100%=      5-min Rain = 0
KSC1 081015Z 35009KT 01/01 A3022 RMK A01 T00050005  RH  100%=      5-min Rain = 0
KSC1 081016Z 36007KT 01/01 A3022 RMK A01 T00050005  RH  100%=      5-min Rain = 0
KSC1 081017Z 35006KT 01/01 A3022 RMK A01 T00050005  RH  100%=      5-min Rain = 0.01
KSC1 081018Z 36007KT 01/01 A3022 RMK A01 T00050005  RH  100%=      5-min Rain = 0
KSC1 081019Z 36007KT 01/01 A3022 RMK A01 T00050005  RH  100%=      5-min Rain = 0
KSC1 081020Z 36007KT 01/01 A3022 RMK A01 T00050005  RH  100%=      5-min Rain = 0.01
KSC1 081021Z 36007KT 01/01 A3022 RMK A01 T00050005  RH  100%=      5-min Rain = 0
KSC1 081022Z 35005KT 01/01 A3022 RMK A01 T00050005  RH  100%=      5-min Rain = 0
KSC1 081023Z 36006KT 01/01 A3022 RMK A01 T00050005  RH  100%=      5-min Rain = 0
KSC1 081024Z 01008KT 01/01 A3022 RMK A01 T00050005  RH  100%=      5-min Rain = 0.01
KSC1 081025Z 01007KT 01/01 A3022 RMK A01 T00050005  RH  100%=      5-min Rain = 0
KSC1 081026Z 01007KT 01/01 A3022 RMK A01 T00050005  RH  100%=      5-min Rain = 0
KSC1 081027Z 02006KT 01/01 A3021 RMK A01 T00050005  RH  100%=      5-min Rain = 0.01
KSC1 081028Z 01006KT 01/01 A3022 RMK A01 T00050005  RH  100%=      5-min Rain = 0
KSC1 081029Z 01006KT 01/01 A3022 RMK A01 T00050005  RH  100%=      5-min Rain = 0
KSC1 081030Z 00006KT 01/01 A3022 RMK A01 T00050005  RH  100%=      5-min Rain = 0
KSC1 081031Z 36005KT 01/01 A3022 RMK A01 T00050005  RH  100%=      5-min Rain = 0.01
KSC1 081032Z 36004KT 01/01 A3022 RMK A01 T00050005  RH  100%=      5-min Rain = 0
KSC1 081033Z 36004KT 01/01 A3022 RMK A01 T00050005  RH  100%=      5-min Rain = 0
KSC1 081034Z 36004KT 01/01 A3022 RMK A01 T00050005  RH  100%=      5-min Rain = 0.01
KSC1 081035Z 01004KT 01/01 A3022 RMK A01 T00050005  RH  100%=      5-min Rain = 0
KSC1 081036Z 01005KT 01/01 A3022 RMK A01 T00050005  RH  100%=      5-min Rain = 0
KSC1 081037Z 02005KT 01/01 A3021 RMK A01 T00050005  RH  100%=      5-min Rain = 0
KSC1 081038Z 01007KT 01/01 A3021 RMK A01 T00050005  RH  100%=      5-min Rain = 0
KSC1 081039Z 35008KT 01/01 A3021 RMK A01 T00050005  RH  100%=      5-min Rain = 0
KSC1 081040Z 00006KT 01/01 A3022 RMK A01 T00050005  RH  100%=      5-min Rain = 0.01
KSC1 081041Z 36006KT 01/01 A3022 RMK A01 T00050005  RH  100%=      5-min Rain = 0
KSC1 081042Z 35006KT 01/01 A3022 RMK A01 T00060005  RH  100%=      5-min Rain = 0
KSC1 081043Z 36006KT 01/01 A3022 RMK A01 T00060006  RH  100%=      5-min Rain = 0
KSC1 081044Z 00005KT 01/01 A3022 RMK A01 T00060005  RH  100%=      5-min Rain = 0
KSC1 081045Z 01006KT 01/01 A3022 RMK A01 T00060006  RH  100%=      5-min Rain = 0
KSC1 081046Z 00007KT 01/01 A3022 RMK A01 T00060006  RH  100%=      5-min Rain = 0
KSC1 081047Z 01007KT 01/01 A3022 RMK A01 T00060006  RH  100%=      5-min Rain = 0.01
KSC1 081048Z 01008KT 01/01 A3022 RMK A01 T00060005  RH  100%=      5-min Rain = 0
KSC1 081049Z 01006KT 01/01 A3022 RMK A01 T00060005  RH  100%=      5-min Rain = 0
KSC1 081050Z 01008KT 01/01 A3022 RMK A01 T00060006  RH  100%=      5-min Rain = 0
KSC1 081051Z 01008KT 01/01 A3022 RMK A01 T00060006  RH  100%=      5-min Rain = 0
KSC1 081052Z 00006KT 01/01 A3022 RMK A01 T00060005  RH  100%=      5-min Rain = 0
KSC1 081053Z 01004KT 01/01 A3022 RMK A01 T00060006  RH  100%=      5-min Rain = 0
KSC1 081054Z 00004KT 01/01 A3022 RMK A01 T00060005  RH  100%=      5-min Rain = 0
KSC1 081055Z 01004KT 01/01 A3022 RMK A01 T00060005  RH  100%=      5-min Rain = 0
KSC1 081056Z 36005KT 01/01 A3022 RMK A01 T00060005  RH  100%=      5-min Rain = 0
KSC1 081057Z 35005KT 01/01 A3022 RMK A01 T00050005  RH  100%=      5-min Rain = 0.01
KSC1 081058Z 35006KT 01/01 A3022 RMK A01 T00060005  RH  100%=      5-min Rain = 0
KSC1 081059Z 00003KT 01/01 A3022 RMK A01 T00060005  RH  100%=      5-min Rain = 0
KSC1 081100Z 36003KT 01/01 A3022 RMK A01 T00060006  RH  100%=      5-min Rain = 0
KSC1 081101Z 36004KT 01/01 A3022 RMK A01 T00060006  RH  100%=      5-min Rain = 0
KSC1 081102Z 35005KT 01/01 A3022 RMK A01 T00060006  RH  100%=      5-min Rain = 0
KSC1 081103Z 00004KT 01/01 A3022 RMK A01 T00060005  RH  100%=      5-min Rain = 0
KSC1 081104Z 01005KT 01/01 A3022 RMK A01 T00060005  RH  100%=      5-min Rain = 0.01
KSC1 081105Z 35007KT 01/01 A3022 RMK A01 T00060005  RH  100%=      5-min Rain = 0
KSC1 081106Z 00007KT 01/01 A3022 RMK A01 T00060005  RH  100%=      5-min Rain = 0
KSC1 081107Z 00006KT 01/01 A3022 RMK A01 T00060006  RH  100%=      5-min Rain = 0
KSC1 081108Z 01005KT 01/01 A3022 RMK A01 T00050005  RH  100%=      5-min Rain = 0.01
KSC1 081109Z 01006KT 01/01 A3022 RMK A01 T00060005  RH  100%=      5-min Rain = 0
KSC1 081110Z 35006KT 01/01 A3022 RMK A01 T00060005  RH  100%=      5-min Rain = 0
KSC1 081111Z 00008KT 01/01 A3022 RMK A01 T00060006  RH  100%=      5-min Rain = 0.01
KSC1 081112Z 00008KT 01/01 A3022 RMK A01 T00050005  RH  100%=      5-min Rain = 0
KSC1 081113Z 36009KT 01/01 A3022 RMK A01 T00060005  RH  100%=      5-min Rain = 0
KSC1 081114Z 35009KT 01/01 A3022 RMK A01 T00050005  RH  100%=      5-min Rain = 0
KSC1 081115Z 36009KT 01/01 A3022 RMK A01 T00050005  RH  100%=      5-min Rain = 0.01
KSC1 081116Z 00009KT 01/01 A3022 RMK A01 T00050005  RH  100%=      5-min Rain = 0
KSC1 081117Z 36008KT 01/00 A3022 RMK A01 T00050004  RH  100%=      5-min Rain = 0.01
KSC1 081118Z 36010KT 01/00 A3022 RMK A01 T00050004  RH  100%=      5-min Rain = 0
KSC1 081119Z 36009KT 01/00 A3022 RMK A01 T00050004  RH  100%=      5-min Rain = 0
KSC1 081120Z 36009KT 00/00 A3022 RMK A01 T00040004  RH  100%=      5-min Rain = 0
KSC1 081121Z 36007KT 00/00 A3022 RMK A01 T00040004  RH  100%=      5-min Rain = 0.01
KSC1 081122Z 36007KT 00/00 A3022 RMK A01 T00040004  RH  100%=      5-min Rain = 0
KSC1 081123Z 00007KT 00/00 A3022 RMK A01 T00040004  RH  100%=      5-min Rain = 0
KSC1 081124Z 36007KT 00/00 A3022 RMK A01 T00040004  RH  100%=      5-min Rain = 0
KSC1 081125Z 35006KT 00/00 A3022 RMK A01 T00040004  RH  100%=      5-min Rain = 0.01
KSC1 081126Z 35006KT 00/00 A3022 RMK A01 T00040004  RH  100%=      5-min Rain = 0
KSC1 081127Z 35007KT 00/00 A3022 RMK A01 T00040004  RH  100%=      5-min Rain = 0
KSC1 081128Z 35006KT 00/00 A3022 RMK A01 T00040004  RH  100%=      5-min Rain = 0
KSC1 081129Z 34006KT 00/00 A3022 RMK A01 T00040004  RH  100%=      5-min Rain = 0
KSC1 081130Z 34007KT 00/00 A3022 RMK A01 T00040004  RH  100%=      5-min Rain = 0
KSC1 081131Z 35007KT 00/00 A3022 RMK A01 T00040004  RH  100%=      5-min Rain = 0
KSC1 081132Z 34005KT 00/00 A3023 RMK A01 T00040004  RH  100%=      5-min Rain = 0
KSC1 081133Z 34008KT 00/00 A3023 RMK A01 T00040004  RH  100%=      5-min Rain = 0
KSC1 081134Z 35007KT 00/00 A3023 RMK A01 T00040003  RH  100%=      5-min Rain = 0.01
KSC1 081135Z 35006KT 00/00 A3023 RMK A01 T00040003  RH  099%=      5-min Rain = 0
KSC1 081136Z 34006KT 00/00 A3023 RMK A01 T00040003  RH  099%=      5-min Rain = 0
KSC1 081137Z 35007KT 00/00 A3023 RMK A01 T00040003  RH  099%=      5-min Rain = 0
KSC1 081138Z 35007KT 00/00 A3023 RMK A01 T00040003  RH  099%=      5-min Rain = 0
KSC1 081139Z 34005KT 00/00 A3023 RMK A01 T00040003  RH  099%=      5-min Rain = 0.01
KSC1 081140Z 35005KT 00/00 A3023 RMK A01 T00040003  RH  099%=      5-min Rain = 0
KSC1 081141Z 34005KT 00/00 A3023 RMK A01 T00040003  RH  099%=      5-min Rain = 0
KSC1 081142Z 34006KT 00/00 A3023 RMK A01 T00040003  RH  099%=      5-min Rain = 0
KSC1 081143Z 35007KT 00/00 A3023 RMK A01 T00040003  RH  099%=      5-min Rain = 0
KSC1 081144Z 35006KT 00/00 A3023 RMK A01 T00040003  RH  099%=      5-min Rain = 0
KSC1 081145Z 34006KT 00/00 A3023 RMK A01 T00040003  RH  099%=      5-min Rain = 0
KSC1 081146Z 35005KT 00/00 A3023 RMK A01 T00040003  RH  099%=      5-min Rain = 0
KSC1 081147Z 35005KT 00/00 A3023 RMK A01 T00040003  RH  099%=      5-min Rain = 0
KSC1 081148Z 34007KT 00/00 A3023 RMK A01 T00040003  RH  099%=      5-min Rain = 0
KSC1 081149Z 33006KT 00/00 A3023 RMK A01 T00040003  RH  099%=      5-min Rain = 0.01
KSC1 081150Z 33006KT 00/00 A3023 RMK A01 T00040003  RH  099%=      5-min Rain = 0
KSC1 081151Z 34005KT 00/00 A3023 RMK A01 T00040003  RH  099%=      5-min Rain = 0
KSC1 081152Z 33007KT 00/00 A3023 RMK A01 T00040003  RH  099%=      5-min Rain = 0
KSC1 081153Z 34006KT 00/00 A3023 RMK A01 T00040003  RH  099%=      5-min Rain = 0
KSC1 081154Z 34005KT 00/00 A3023 RMK A01 T00040003  RH  099%=      5-min Rain = 0
KSC1 081155Z 34005KT 00/00 A3024 RMK A01 T00040003  RH  099%=      5-min Rain = 0
KSC1 081156Z 33007KT 00/00 A3024 RMK A01 T00040003  RH  099%=      5-min Rain = 0.01
KSC1 081157Z 34007KT 00/00 A3024 RMK A01 T00040003  RH  099%=      5-min Rain = 0
KSC1 081158Z 34007KT 00/00 A3024 RMK A01 T00040003  RH  099%=      5-min Rain = 0
KSC1 081159Z 34007KT 00/00 A3024 RMK A01 T00040003  RH  099%=      5-min Rain = 0
KSC1 081200Z 34006KT 00/00 A3024 RMK A01 T00040003  RH  099%=      5-min Rain = 0
KSC1 081201Z 35005KT 00/00 A3024 RMK A01 T00040003  RH  099%=      5-min Rain = 0
KSC1 081202Z 34005KT 00/00 A3024 RMK A01 T00040003  RH  099%=      5-min Rain = 0
KSC1 081203Z 34005KT 00/00 A3024 RMK A01 T00040003  RH  099%=      5-min Rain = 0
KSC1 081204Z 34005KT 00/00 A3024 RMK A01 T00040003  RH  099%=      5-min Rain = 0.01
KSC1 081205Z 33004KT 00/00 A3024 RMK A01 T00040003  RH  099%=      5-min Rain = 0
KSC1 081206Z 34004KT 00/00 A3024 RMK A01 T00040004  RH  099%=      5-min Rain = 0
KSC1 081207Z 34004KT 00/00 A3024 RMK A01 T00040004  RH  100%=      5-min Rain = 0
KSC1 081208Z 33005KT 01/00 A3024 RMK A01 T00050004  RH  100%=      5-min Rain = 0
KSC1 081209Z 33005KT 01/00 A3024 RMK A01 T00050004  RH  100%=      5-min Rain = 0
KSC1 081210Z 34004KT 01/00 A3024 RMK A01 T00050004  RH  100%=      5-min Rain = 0
KSC1 081211Z 33005KT 01/01 A3024 RMK A01 T00050005  RH  100%=      5-min Rain = 0
KSC1 081212Z 33006KT 01/01 A3024 RMK A01 T00050005  RH  100%=      5-min Rain = 0
KSC1 081213Z 34005KT 01/00 A3024 RMK A01 T00050004  RH  100%=      5-min Rain = 0
KSC1 081214Z 34005KT 01/01 A3024 RMK A01 T00050005  RH  100%=      5-min Rain = 0
KSC1 081215Z 34006KT 00/00 A3024 RMK A01 T00040004  RH  100%=      5-min Rain = 0
KSC1 081216Z 34007KT 00/00 A3024 RMK A01 T00040004  RH  100%=      5-min Rain = 0
KSC1 081217Z 34008KT 00/00 A3024 RMK A01 T00040004  RH  100%=      5-min Rain = 0
KSC1 081218Z 34009KT 00/00 A3024 RMK A01 T00040004  RH  100%=      5-min Rain = 0
KSC1 081219Z 34008KT 00/00 A3024 RMK A01 T00040003  RH  100%=      5-min Rain = 0
KSC1 081220Z 35008KT 00/00 A3024 RMK A01 T00030003  RH  100%=      5-min Rain = 0
KSC1 081221Z 34008KT 00/00 A3024 RMK A01 T00040003  RH  100%=      5-min Rain = 0
KSC1 081222Z 35008KT 00/00 A3024 RMK A01 T00040003  RH  100%=      5-min Rain = 0
KSC1 081223Z 34007KT 00/00 A3024 RMK A01 T00030003  RH  099%=      5-min Rain = 0
KSC1 081224Z 34008KT 00/00 A3024 RMK A01 T00030003  RH  099%=      5-min Rain = 0
KSC1 081225Z 34008KT 00/00 A3024 RMK A01 T00030002  RH  099%=      5-min Rain = 0
KSC1 081226Z 34008KT 00/00 A3024 RMK A01 T00040003  RH  099%=      5-min Rain = 0.01
KSC1 081227Z 35007KT 00/00 A3024 RMK A01 T00030002  RH  099%=      5-min Rain = 0
KSC1 081228Z 34008KT 00/00 A3024 RMK A01 T00030002  RH  099%=      5-min Rain = 0
KSC1 081229Z 34008KT 00/00 A3024 RMK A01 T00030002  RH  099%=      5-min Rain = 0
KSC1 081230Z 35007KT 00/00 A3024 RMK A01 T00030002  RH  099%=      5-min Rain = 0
KSC1 081231Z 34007KT 00/00 A3024 RMK A01 T00030002  RH  099%=      5-min Rain = 0
KSC1 081232Z 34007KT 00/00 A3024 RMK A01 T00030002  RH  099%=      5-min Rain = 0
KSC1 081233Z 34007KT 00/00 A3024 RMK A01 T00040003  RH  099%=      5-min Rain = 0
KSC1 081234Z 34008KT 00/00 A3025 RMK A01 T00030002  RH  099%=      5-min Rain = 0
KSC1 081235Z 34008KT 00/00 A3025 RMK A01 T00030002  RH  099%=      5-min Rain = 0.01
KSC1 081236Z 34010KT 00/00 A3025 RMK A01 T00030002  RH  099%=      5-min Rain = 0
KSC1 081237Z 34007KT 00/00 A3025 RMK A01 T00030002  RH  099%=      5-min Rain = 0
KSC1 081238Z 33007KT 00/00 A3025 RMK A01 T00030002  RH  099%=      5-min Rain = 0.01
KSC1 081239Z 33007KT 00/00 A3025 RMK A01 T00030002  RH  099%=      5-min Rain = 0
KSC1 081240Z 33009KT 00/00 A3025 RMK A01 T00030002  RH  099%=      5-min Rain = 0
KSC1 081241Z 33008KT 00/00 A3025 RMK A01 T00030002  RH  099%=      5-min Rain = 0
KSC1 081242Z 33007KT 00/00 A3025 RMK A01 T00030002  RH  099%=      5-min Rain = 0.01
KSC1 081243Z 32009KT 00/00 A3025 RMK A01 T00030002  RH  099%=      5-min Rain = 0
KSC1 081244Z 34008KT 00/00 A3025 RMK A01 T00030002  RH  099%=      5-min Rain = 0
KSC1 081245Z 33007KT 00/00 A3026 RMK A01 T00030002  RH  099%=      5-min Rain = 0.01
KSC1 081246Z 33007KT 00/00 A3026 RMK A01 T00040002  RH  099%=      5-min Rain = 0
KSC1 081247Z 33006KT 00/00 A3026 RMK A01 T00030002  RH  099%=      5-min Rain = 0
KSC1 081248Z 33007KT 00/00 A3026 RMK A01 T00040002  RH  099%=      5-min Rain = 0
KSC1 081249Z 34008KT 00/00 A3026 RMK A01 T00040002  RH  099%=      5-min Rain = 0
KSC1 081250Z 33006KT 00/00 A3026 RMK A01 T00040002  RH  099%=      5-min Rain = 0.01
KSC1 081251Z 33008KT 00/00 A3026 RMK A01 T00030002  RH  099%=      5-min Rain = 0
KSC1 081252Z 34007KT 00/00 A3026 RMK A01 T00030002  RH  099%=      5-min Rain = 0
KSC1 081253Z 34006KT 00/00 A3026 RMK A01 T00040002  RH  099%=      5-min Rain = 0
KSC1 081254Z 34006KT 00/00 A3026 RMK A01 T00030002  RH  099%=      5-min Rain = 0
KSC1 081255Z 34006KT 00/00 A3026 RMK A01 T00030002  RH  099%=      5-min Rain = 0
KSC1 081256Z 34007KT 00/00 A3026 RMK A01 T00030002  RH  099%=      5-min Rain = 0.01
KSC1 081257Z 33004KT 00/00 A3026 RMK A01 T00040002  RH  099%=      5-min Rain = 0
KSC1 081258Z 32005KT 00/00 A3026 RMK A01 T00030002  RH  099%=      5-min Rain = 0
KSC1 081259Z 32006KT 00/00 A3026 RMK A01 T00030002  RH  099%=      5-min Rain = 0
KSC1 081300Z 32005KT 00/00 A3027 RMK A01 T00030002  RH  099%=      5-min Rain = 0
KSC1 081301Z 33006KT 00/00 A3027 RMK A01 T00040003  RH  100%=      5-min Rain = 0
KSC1 081302Z 33007KT 00/00 A3027 RMK A01 T00030002  RH  100%=      5-min Rain = 0
KSC1 081303Z 33006KT 00/00 A3027 RMK A01 T00030003  RH  100%=      5-min Rain = 0
KSC1 081304Z 34006KT 00/00 A3027 RMK A01 T00030003  RH  100%=      5-min Rain = 0
KSC1 081305Z 34006KT 00/00 A3027 RMK A01 T00030003  RH  099%=      5-min Rain = 0
KSC1 081306Z 34007KT 00/00 A3027 RMK A01 T00030003  RH  099%=      5-min Rain = 0
KSC1 081307Z 34008KT 00/00 A3027 RMK A01 T00040003  RH  099%=      5-min Rain = 0
KSC1 081308Z 34008KT 00/00 A3027 RMK A01 T00040003  RH  099%=      5-min Rain = 0
KSC1 081309Z 34006KT 00/00 A3027 RMK A01 T00040003  RH  099%=      5-min Rain = 0
KSC1 081310Z 33006KT 00/00 A3027 RMK A01 T00040003  RH  099%=      5-min Rain = 0
KSC1 081311Z 34006KT 00/00 A3027 RMK A01 T00040003  RH  100%=      5-min Rain = 0
KSC1 081312Z 34005KT 00/00 A3027 RMK A01 T00040003  RH  100%=      5-min Rain = 0.01
KSC1 081313Z 33007KT 00/00 A3027 RMK A01 T00040003  RH  100%=      5-min Rain = 0
KSC1 081314Z 33006KT 00/00 A3027 RMK A01 T00040003  RH  100%=      5-min Rain = 0
KSC1 081315Z 34009KT 00/00 A3027 RMK A01 T00040003  RH  100%=      5-min Rain = 0
KSC1 081316Z 33007KT 00/00 A3027 RMK A01 T00040003  RH  100%=      5-min Rain = 0
KSC1 081317Z 33007KT 00/00 A3027 RMK A01 T00040003  RH  099%=      5-min Rain = 0
KSC1 081318Z 33008KT 00/00 A3027 RMK A01 T00040003  RH  099%=      5-min Rain = 0
KSC1 081319Z 34007KT 00/00 A3027 RMK A01 T00040003  RH  099%=      5-min Rain = 0
KSC1 081320Z 34006KT 00/00 A3027 RMK A01 T00040003  RH  099%=      5-min Rain = 0
KSC1 081321Z 33006KT 00/00 A3027 RMK A01 T00040003  RH  099%=      5-min Rain = 0
KSC1 081322Z 33005KT 00/00 A3027 RMK A01 T00040003  RH  099%=      5-min Rain = 0
KSC1 081323Z 34006KT 00/00 A3027 RMK A01 T00040003  RH  099%=      5-min Rain = 0
KSC1 081324Z 33005KT 00/00 A3027 RMK A01 T00040003  RH  099%=      5-min Rain = 0
KSC1 081325Z 33004KT 00/00 A3027 RMK A01 T00040003  RH  099%=      5-min Rain = 0
KSC1 081326Z 33004KT 00/00 A3027 RMK A01 T00040004  RH  100%=      5-min Rain = 0
KSC1 081327Z 33008KT 00/00 A3027 RMK A01 T00040004  RH  100%=      5-min Rain = 0
KSC1 081328Z 33007KT 00/00 A3027 RMK A01 T00040004  RH  100%=      5-min Rain = 0
KSC1 081329Z 33008KT 00/00 A3027 RMK A01 T00040004  RH  100%=      5-min Rain = 0
KSC1 081330Z 34007KT 00/00 A3027 RMK A01 T00040004  RH  100%=      5-min Rain = 0
KSC1 081331Z 34007KT 00/00 A3027 RMK A01 T00040004  RH  100%=      5-min Rain = 0
KSC1 081332Z 34009KT 00/00 A3027 RMK A01 T00040004  RH  100%=      5-min Rain = 0
KSC1 081333Z 35007KT 00/00 A3027 RMK A01 T00040003  RH  099%=      5-min Rain = 0
KSC1 081334Z 35006KT 00/00 A3027 RMK A01 T00040003  RH  099%=      5-min Rain = 0
KSC1 081335Z 35007KT 00/00 A3028 RMK A01 T00040003  RH  099%=      5-min Rain = 0
KSC1 081336Z 34006KT 00/00 A3028 RMK A01 T00040003  RH  099%=      5-min Rain = 0
KSC1 081337Z 34009KT 00/00 A3028 RMK A01 T00040003  RH  099%=      5-min Rain = 0.01
KSC1 081338Z 35007KT 00/00 A3028 RMK A01 T00040003  RH  099%=      5-min Rain = 0
KSC1 081339Z 34005KT 00/00 A3028 RMK A01 T00040003  RH  099%=      5-min Rain = 0
KSC1 081340Z 34005KT 00/00 A3028 RMK A01 T00040003  RH  099%=      5-min Rain = 0
KSC1 081341Z 35008KT 00/00 A3028 RMK A01 T00040003  RH  099%=      5-min Rain = 0
KSC1 081342Z 35007KT 00/00 A3028 RMK A01 T00040003  RH  099%=      5-min Rain = 0
KSC1 081343Z 34006KT 00/00 A3028 RMK A01 T00040003  RH  099%=      5-min Rain = 0
KSC1 081344Z 34006KT 00/00 A3028 RMK A01 T00040004  RH  099%=      5-min Rain = 0
KSC1 081345Z 34008KT 00/00 A3028 RMK A01 T00040003  RH  099%=      5-min Rain = 0
KSC1 081346Z 34006KT 00/00 A3028 RMK A01 T00040003  RH  099%=      5-min Rain = 0
KSC1 081347Z 34006KT 00/00 A3028 RMK A01 T00040003  RH  100%=      5-min Rain = 0
KSC1 081348Z 34007KT 00/00 A3028 RMK A01 T00040004  RH  100%=      5-min Rain = 0
KSC1 081349Z 34006KT 00/00 A3028 RMK A01 T00040004  RH  100%=      5-min Rain = 0
KSC1 081350Z 33005KT 00/00 A3028 RMK A01 T00040004  RH  100%=      5-min Rain = 0
KSC1 081351Z 34007KT 00/00 A3028 RMK A01 T00040004  RH  100%=      5-min Rain = 0
KSC1 081352Z 33007KT 00/00 A3028 RMK A01 T00040004  RH  100%=      5-min Rain = 0
KSC1 081353Z 34008KT 00/00 A3028 RMK A01 T00040004  RH  100%=      5-min Rain = 0
KSC1 081354Z 35007KT 00/00 A3028 RMK A01 T00040004  RH  099%=      5-min Rain = 0
KSC1 081355Z 34006KT 01/00 A3028 RMK A01 T00050004  RH  099%=      5-min Rain = 0
KSC1 081356Z 34007KT 01/00 A3028 RMK A01 T00050004  RH  099%=      5-min Rain = 0
KSC1 081357Z 33006KT 01/00 A3028 RMK A01 T00050004  RH  099%=      5-min Rain = 0
KSC1 081358Z 35006KT 01/00 A3028 RMK A01 T00050004  RH  099%=      5-min Rain = 0
KSC1 081359Z 35007KT 01/00 A3028 RMK A01 T00050004  RH  099%=      5-min Rain = 0
KSC1 081400Z 34008KT 01/00 A3028 RMK A01 T00050004  RH  099%=      5-min Rain = 0
KSC1 081401Z 34007KT 01/00 A3028 RMK A01 T00050004  RH  099%=      5-min Rain = 0
KSC1 081402Z 34007KT 01/00 A3028 RMK A01 T00050004  RH  099%=      5-min Rain = 0
KSC1 081403Z 34007KT 01/00 A3028 RMK A01 T00050004  RH  099%=      5-min Rain = 0
KSC1 081404Z 34005KT 01/00 A3028 RMK A01 T00050003  RH  099%=      5-min Rain = 0
KSC1 081405Z 34006KT 01/00 A3028 RMK A01 T00050004  RH  099%=      5-min Rain = 0
KSC1 081406Z 34007KT 01/00 A3028 RMK A01 T00060004  RH  099%=      5-min Rain = 0
KSC1 081407Z 33007KT 01/00 A3028 RMK A01 T00060004  RH  099%=      5-min Rain = 0
KSC1 081408Z 34005KT 01/00 A3028 RMK A01 T00060004  RH  099%=      5-min Rain = 0
KSC1 081409Z 33005KT 01/00 A3028 RMK A01 T00060004  RH  099%=      5-min Rain = 0
KSC1 081410Z 34007KT 01/00 A3028 RMK A01 T00060004  RH  099%=      5-min Rain = 0
KSC1 081411Z 35008KT 01/01 A3028 RMK A01 T00060005  RH  099%=      5-min Rain = 0
KSC1 081412Z 35007KT 01/00 A3029 RMK A01 T00060004  RH  099%=      5-min Rain = 0
KSC1 081413Z 35009KT 01/00 A3028 RMK A01 T00060004  RH  099%=      5-min Rain = 0
KSC1 081414Z 35007KT 01/00 A3028 RMK A01 T00050004  RH  099%=      5-min Rain = 0
KSC1 081415Z 34007KT 01/00 A3028 RMK A01 T00050003  RH  099%=      5-min Rain = 0
KSC1 081416Z 34007KT 01/00 A3028 RMK A01 T00050003  RH  099%=      5-min Rain = 0
KSC1 081417Z 35008KT 01/00 A3028 RMK A01 T00050003  RH  099%=      5-min Rain = 0
KSC1 081418Z 34009KT 01/00 A3028 RMK A01 T00050003  RH  099%=      5-min Rain = 0
KSC1 081419Z 34009KT 01/00 A3028 RMK A01 T00050003  RH  098%=      5-min Rain = 0
KSC1 081420Z 34008KT 01/00 A3029 RMK A01 T00050003  RH  098%=      5-min Rain = 0
KSC1 081421Z 34007KT 01/00 A3029 RMK A01 T00050003  RH  098%=      5-min Rain = 0
KSC1 081422Z 34009KT 01/00 A3029 RMK A01 T00050002  RH  098%=      5-min Rain = 0
KSC1 081423Z 34006KT 01/00 A3029 RMK A01 T00050002  RH  098%=      5-min Rain = 0
KSC1 081424Z 34007KT 01/00 A3029 RMK A01 T00050002  RH  098%=      5-min Rain = 0
KSC1 081425Z 34006KT 01/00 A3029 RMK A01 T00050003  RH  098%=      5-min Rain = 0
KSC1 081426Z 34007KT 01/00 A3029 RMK A01 T00050003  RH  098%=      5-min Rain = 0
KSC1 081427Z 35005KT 01/00 A3029 RMK A01 T00050003  RH  098%=      5-min Rain = 0
KSC1 081428Z 35004KT 01/00 A3029 RMK A01 T00050003  RH  099%=      5-min Rain = 0
KSC1 081429Z 34007KT 01/00 A3029 RMK A01 T00050004  RH  099%=      5-min Rain = 0
KSC1 081430Z 35009KT 01/00 A3029 RMK A01 T00050003  RH  099%=      5-min Rain = 0
KSC1 081431Z 35009KT 01/00 A3029 RMK A01 T00050003  RH  099%=      5-min Rain = 0
KSC1 081432Z 34007KT 01/00 A3029 RMK A01 T00050004  RH  099%=      5-min Rain = 0
KSC1 081433Z 34007KT 01/00 A3029 RMK A01 T00050004  RH  099%=      5-min Rain = 0
KSC1 081434Z 34007KT 01/00 A3029 RMK A01 T00050003  RH  099%=      5-min Rain = 0
KSC1 081435Z 34007KT 01/00 A3029 RMK A01 T00050003  RH  099%=      5-min Rain = 0
KSC1 081436Z 33005KT 01/00 A3029 RMK A01 T00060004  RH  099%=      5-min Rain = 0
KSC1 081437Z 35007KT 01/00 A3029 RMK A01 T00060004  RH  099%=      5-min Rain = 0
KSC1 081438Z 34007KT 01/00 A3029 RMK A01 T00050004  RH  099%=      5-min Rain = 0
KSC1 081439Z 34007KT 01/00 A3029 RMK A01 T00060004  RH  099%=      5-min Rain = 0
KSC1 081440Z 34008KT 01/00 A3029 RMK A01 T00060004  RH  099%=      5-min Rain = 0
KSC1 081441Z 33008KT 01/00 A3029 RMK A01 T00060004  RH  099%=      5-min Rain = 0
KSC1 081442Z 34008KT 01/00 A3029 RMK A01 T00060004  RH  099%=      5-min Rain = 0
KSC1 081443Z 34006KT 01/00 A3029 RMK A01 T00060004  RH  099%=      5-min Rain = 0
KSC1 081444Z 35006KT 01/00 A3029 RMK A01 T00060004  RH  099%=      5-min Rain = 0
KSC1 081445Z 34006KT 01/00 A3029 RMK A01 T00060004  RH  099%=      5-min Rain = 0
KSC1 081446Z 35006KT 01/00 A3029 RMK A01 T00060004  RH  099%=      5-min Rain = 0
KSC1 081447Z 34006KT 01/01 A3029 RMK A01 T00070005  RH  099%=      5-min Rain = 0
KSC1 081448Z 34008KT 01/01 A3029 RMK A01 T00070005  RH  099%=      5-min Rain = 0
KSC1 081449Z 35007KT 01/01 A3029 RMK A01 T00070005  RH  099%=      5-min Rain = 0
KSC1 081450Z 34007KT 01/01 A3029 RMK A01 T00070005  RH  099%=      5-min Rain = 0
KSC1 081451Z 34008KT 01/00 A3029 RMK A01 T00070004  RH  099%=      5-min Rain = 0
KSC1 081452Z 35008KT 01/00 A3029 RMK A01 T00070004  RH  098%=      5-min Rain = 0
KSC1 081453Z 35007KT 01/00 A3029 RMK A01 T00060004  RH  098%=      5-min Rain = 0
KSC1 081454Z 34006KT 01/00 A3029 RMK A01 T00070004  RH  098%=      5-min Rain = 0
KSC1 081455Z 35004KT 01/00 A3029 RMK A01 T00070004  RH  098%=      5-min Rain = 0
KSC1 081456Z 35005KT 01/01 A3029 RMK A01 T00070005  RH  098%=      5-min Rain = 0
KSC1 081457Z 35006KT 01/01 A3029 RMK A01 T00070005  RH  098%=      5-min Rain = 0
KSC1 081458Z 35007KT 01/00 A3029 RMK A01 T00070004  RH  098%=      5-min Rain = 0
KSC1 081459Z 35007KT 01/00 A3029 RMK A01 T00070004  RH  098%=      5-min Rain = 0
KSC1 081500Z 35006KT 01/00 A3029 RMK A01 T00070004  RH  098%=      5-min Rain = 0
KSC1 081501Z 35004KT 01/00 A3029 RMK A01 T00070004  RH  098%=      5-min Rain = 0
KSC1 081502Z 34005KT 01/01 A303 RMK A01 T00070005  RH  098%=      5-min Rain = 0
KSC1 081503Z 34006KT 01/01 A303 RMK A01 T00070005  RH  098%=      5-min Rain = 0
KSC1 081504Z 35005KT 01/01 A303 RMK A01 T00080005  RH  098%=      5-min Rain = 0
KSC1 081505Z 34007KT 01/01 A303 RMK A01 T00070005  RH  098%=      5-min Rain = 0
KSC1 081506Z 35009KT 01/01 A303 RMK A01 T00080005  RH  098%=      5-min Rain = 0
KSC1 081507Z 34007KT 01/01 A303 RMK A01 T00080005  RH  098%=      5-min Rain = 0
KSC1 081508Z 34006KT 01/01 A303 RMK A01 T00080005  RH  098%=      5-min Rain = 0
KSC1 081509Z 34006KT 01/01 A303 RMK A01 T00080005  RH  098%=      5-min Rain = 0
KSC1 081510Z 33006KT 01/01 A303 RMK A01 T00090006  RH  098%=      5-min Rain = 0
KSC1 081511Z 32008KT 01/01 A303 RMK A01 T00080006  RH  098%=      5-min Rain = 0
KSC1 081512Z 33009KT 01/01 A303 RMK A01 T00080005  RH  098%=      5-min Rain = 0
KSC1 081513Z 33008KT 01/01 A303 RMK A01 T00080005  RH  098%=      5-min Rain = 0
KSC1 081514Z 34009KT 01/01 A303 RMK A01 T00080005  RH  098%=      5-min Rain = 0
KSC1 081515Z 33009KT 01/01 A303 RMK A01 T00080005  RH  098%=      5-min Rain = 0
KSC1 081516Z 33008KT 01/00 A303 RMK A01 T00080004  RH  098%=      5-min Rain = 0
KSC1 081517Z 33006KT 01/01 A303 RMK A01 T00080005  RH  098%=      5-min Rain = 0
KSC1 081518Z 33005KT 01/01 A303 RMK A01 T00080005  RH  098%=      5-min Rain = 0
KSC1 081519Z 33006KT 01/01 A303 RMK A01 T00080005  RH  098%=      5-min Rain = 0
KSC1 081520Z 33007KT 01/01 A303 RMK A01 T00080006  RH  098%=      5-min Rain = 0
KSC1 081521Z 34006KT 01/01 A3031 RMK A01 T00090006  RH  098%=      5-min Rain = 0
KSC1 081522Z 34007KT 01/01 A3031 RMK A01 T00080006  RH  098%=      5-min Rain = 0
KSC1 081523Z 34007KT 01/01 A3031 RMK A01 T00080006  RH  098%=      5-min Rain = 0
KSC1 081524Z 33007KT 01/01 A3031 RMK A01 T00090006  RH  098%=      5-min Rain = 0
KSC1 081525Z 33008KT 01/01 A3031 RMK A01 T00090006  RH  098%=      5-min Rain = 0
KSC1 081526Z 34007KT 01/01 A3031 RMK A01 T00090006  RH  098%=      5-min Rain = 0
KSC1 081527Z 34008KT 01/01 A3031 RMK A01 T00090006  RH  098%=      5-min Rain = 0
KSC1 081528Z 33007KT 01/01 A3031 RMK A01 T00090006  RH  098%=      5-min Rain = 0
KSC1 081529Z 34008KT 01/01 A3031 RMK A01 T00090006  RH  098%=      5-min Rain = 0
KSC1 081530Z 34006KT 01/01 A3031 RMK A01 T00090006  RH  098%=      5-min Rain = 0
KSC1 081531Z 34008KT 01/01 A3031 RMK A01 T00090006  RH  098%=      5-min Rain = 0
KSC1 081532Z 34008KT 01/01 A3031 RMK A01 T00090006  RH  098%=      5-min Rain = 0
KSC1 081533Z 34009KT 01/01 A3031 RMK A01 T00090006  RH  098%=      5-min Rain = 0
KSC1 081534Z 34007KT 01/01 A3031 RMK A01 T00090006  RH  097%=      5-min Rain = 0
KSC1 081535Z 34008KT 01/01 A3031 RMK A01 T00100006  RH  097%=      5-min Rain = 0
KSC1 081536Z 34009KT 01/01 A3031 RMK A01 T00100006  RH  098%=      5-min Rain = 0
KSC1 081537Z 33007KT 01/01 A3031 RMK A01 T00100006  RH  098%=      5-min Rain = 0
KSC1 081538Z 32007KT 01/01 A3031 RMK A01 T00100007  RH  098%=      5-min Rain = 0
KSC1 081539Z 33007G12KT 01/01 A3031 RMK A01 T00110008  RH  098%=      5-min Rain = 0
KSC1 081540Z 32008KT 01/01 A3031 RMK A01 T00110008  RH  098%=      5-min Rain = 0
KSC1 081541Z 32009KT 01/01 A3031 RMK A01 T00110008  RH  098%=      5-min Rain = 0
KSC1 081542Z 32009KT 01/01 A3031 RMK A01 T00100007  RH  098%=      5-min Rain = 0
KSC1 081543Z 32010KT 01/01 A3031 RMK A01 T00100007  RH  098%=      5-min Rain = 0
KSC1 081544Z 33010KT 01/01 A3031 RMK A01 T00100006  RH  097%=      5-min Rain = 0
KSC1 081545Z 33010KT 01/01 A3031 RMK A01 T00100006  RH  097%=      5-min Rain = 0
KSC1 081546Z 33009KT 01/01 A3032 RMK A01 T00100006  RH  097%=      5-min Rain = 0
KSC1 081547Z 33010KT 01/01 A3032 RMK A01 T00100006  RH  097%=      5-min Rain = 0
KSC1 081548Z 33008KT 01/01 A3032 RMK A01 T00100006  RH  097%=      5-min Rain = 0
KSC1 081549Z 34010KT 01/01 A3032 RMK A01 T00100006  RH  097%=      5-min Rain = 0
KSC1 081550Z 34008KT 01/01 A3032 RMK A01 T00100006  RH  097%=      5-min Rain = 0
KSC1 081551Z 34007G12KT 01/01 A3032 RMK A01 T00100005  RH  097%=      5-min Rain = 0
KSC1 081552Z 34010KT 01/01 A3032 RMK A01 T00100005  RH  097%=      5-min Rain = 0
KSC1 081553Z 34008KT 01/01 A3032 RMK A01 T00100005  RH  097%=      5-min Rain = 0
KSC1 081554Z 34010KT 01/01 A3032 RMK A01 T00090005  RH  097%=      5-min Rain = 0
KSC1 081555Z 33011KT 01/01 A3032 RMK A01 T00090005  RH  097%=      5-min Rain = 0
KSC1 081556Z 34011KT 01/00 A3032 RMK A01 T00090004  RH  097%=      5-min Rain = 0
KSC1 081557Z 34007KT 01/00 A3032 RMK A01 T00090003  RH  096%=      5-min Rain = 0
KSC1 081558Z 34010KT 01/00 A3032 RMK A01 T00090003  RH  096%=      5-min Rain = 0
KSC1 081559Z 34008KT 01/00 A3032 RMK A01 T00090003  RH  096%=      5-min Rain = 0
KSC1 081600Z 34008KT 01/00 A3032 RMK A01 T00090003  RH  096%=      5-min Rain = 0
KSC1 081601Z 34007KT 01/00 A3032 RMK A01 T00090003  RH  096%=      5-min Rain = 0
KSC1 081602Z 35008KT 01/00 A3032 RMK A01 T00090003  RH  096%=      5-min Rain = 0
KSC1 081603Z 34007KT 01/00 A3032 RMK A01 T00090003  RH  096%=      5-min Rain = 0
KSC1 081604Z 33005KT 01/00 A3032 RMK A01 T00090004  RH  096%=      5-min Rain = 0
KSC1 081605Z 34005KT 01/01 A3032 RMK A01 T00100005  RH  097%=      5-min Rain = 0
KSC1 081606Z 34006KT 01/01 A3032 RMK A01 T00100006  RH  097%=      5-min Rain = 0
KSC1 081607Z 34009KT 01/01 A3032 RMK A01 T00110006  RH  097%=      5-min Rain = 0
KSC1 081608Z 33010KT 01/01 A3032 RMK A01 T00110006  RH  097%=      5-min Rain = 0
KSC1 081609Z 33009KT 01/01 A3032 RMK A01 T00100005  RH  096%=      5-min Rain = 0
KSC1 081610Z 33009KT 01/00 A3032 RMK A01 T00100004  RH  096%=      5-min Rain = 0
KSC1 081611Z 34006KT 01/00 A3032 RMK A01 T00100004  RH  096%=      5-min Rain = 0
KSC1 081612Z 34006KT 01/01 A3032 RMK A01 T00110005  RH  096%=      5-min Rain = 0
KSC1 081613Z 33006KT 01/01 A3032 RMK A01 T00110007  RH  097%=      5-min Rain = 0
KSC1 081614Z 35007KT 01/01 A3032 RMK A01 T00120007  RH  097%=      5-min Rain = 0
KSC1 081615Z 35007KT 01/01 A3032 RMK A01 T00120007  RH  097%=      5-min Rain = 0
KSC1 081616Z 34005KT 01/01 A3032 RMK A01 T00110006  RH  097%=      5-min Rain = 0
KSC1 081617Z 33006KT 01/01 A3032 RMK A01 T00120007  RH  097%=      5-min Rain = 0
KSC1 081618Z 33006KT 01/01 A3032 RMK A01 T00120007  RH  097%=      5-min Rain = 0
KSC1 081619Z 34005KT 01/01 A3032 RMK A01 T00120007  RH  096%=      5-min Rain = 0
KSC1 081620Z 33008KT 01/01 A3032 RMK A01 T00120007  RH  097%=      5-min Rain = 0
KSC1 081621Z 33007KT 01/01 A3032 RMK A01 T00120007  RH  097%=      5-min Rain = 0
KSC1 081622Z 34009KT 01/01 A3032 RMK A01 T00120006  RH  096%=      5-min Rain = 0
KSC1 081623Z 34008KT 01/01 A3032 RMK A01 T00110006  RH  096%=      5-min Rain = 0
KSC1 081624Z 34007KT 01/01 A3032 RMK A01 T00110005  RH  096%=      5-min Rain = 0
KSC1 081625Z 34008KT 01/01 A3032 RMK A01 T00110006  RH  096%=      5-min Rain = 0
KSC1 081626Z 33006KT 01/01 A3032 RMK A01 T00120007  RH  097%=      5-min Rain = 0
KSC1 081627Z 33008KT 01/01 A3032 RMK A01 T00110007  RH  097%=      5-min Rain = 0
KSC1 081628Z 33008KT 01/01 A3033 RMK A01 T00120007  RH  097%=      5-min Rain = 0
KSC1 081629Z 34007KT 01/01 A3033 RMK A01 T00120007  RH  097%=      5-min Rain = 0
KSC1 081630Z 34007KT 01/01 A3033 RMK A01 T00120007  RH  097%=      5-min Rain = 0
KSC1 081631Z 33008KT 01/01 A3033 RMK A01 T00120007  RH  097%=      5-min Rain = 0
KSC1 081632Z 34008KT 01/01 A3033 RMK A01 T00110007  RH  097%=      5-min Rain = 0
KSC1 081633Z 34008KT 01/01 A3033 RMK A01 T00120008  RH  097%=      5-min Rain = 0
KSC1 081634Z 33008KT 01/01 A3033 RMK A01 T00120008  RH  097%=      5-min Rain = 0
KSC1 081635Z 33008KT 01/01 A3033 RMK A01 T00120008  RH  097%=      5-min Rain = 0
KSC1 081636Z 33007KT 01/01 A3033 RMK A01 T00120008  RH  097%=      5-min Rain = 0
KSC1 081637Z 32007KT 01/01 A3033 RMK A01 T00120009  RH  098%=      5-min Rain = 0
KSC1 081638Z 34006G11KT 01/01 A3033 RMK A01 T00130009  RH  098%=      5-min Rain = 0
KSC1 081639Z 33010KT 01/01 A3033 RMK A01 T00130009  RH  098%=      5-min Rain = 0
KSC1 081640Z 33009KT 01/01 A3033 RMK A01 T00120008  RH  097%=      5-min Rain = 0
KSC1 081641Z 34008KT 01/01 A3033 RMK A01 T00120007  RH  097%=      5-min Rain = 0
KSC1 081642Z 34009KT 01/01 A3033 RMK A01 T00120007  RH  097%=      5-min Rain = 0
KSC1 081643Z 34008KT 01/01 A3033 RMK A01 T00120007  RH  096%=      5-min Rain = 0
KSC1 081644Z 33005KT 01/01 A3033 RMK A01 T00120007  RH  096%=      5-min Rain = 0
KSC1 081645Z 33009KT 01/01 A3033 RMK A01 T00130008  RH  097%=      5-min Rain = 0
KSC1 081646Z 33009KT 01/01 A3033 RMK A01 T00130008  RH  097%=      5-min Rain = 0
KSC1 081647Z 34008KT 01/01 A3033 RMK A01 T00130008  RH  096%=      5-min Rain = 0
KSC1 081648Z 33006KT 01/01 A3033 RMK A01 T00130008  RH  096%=      5-min Rain = 0
KSC1 081649Z 33007KT 01/01 A3033 RMK A01 T00130008  RH  097%=      5-min Rain = 0
KSC1 081650Z 33007KT 01/01 A3033 RMK A01 T00140009  RH  097%=      5-min Rain = 0
KSC1 081651Z 33007KT 01/01 A3033 RMK A01 T00140009  RH  097%=      5-min Rain = 0
KSC1 081652Z 33007KT 01/01 A3033 RMK A01 T00140010  RH  097%=      5-min Rain = 0
KSC1 081653Z 33006KT 01/01 A3033 RMK A01 T00130009  RH  097%=      5-min Rain = 0
KSC1 081654Z 34007KT 01/01 A3033 RMK A01 T00130010  RH  097%=      5-min Rain = 0
KSC1 081655Z 33007G12KT 01/01 A3033 RMK A01 T00130010  RH  097%=      5-min Rain = 0
KSC1 081656Z 33009KT 01/01 A3033 RMK A01 T00130009  RH  097%=      5-min Rain = 0
KSC1 081657Z 33008KT 01/01 A3033 RMK A01 T00120008  RH  097%=      5-min Rain = 0
KSC1 081658Z 33008KT 01/01 A3033 RMK A01 T00120008  RH  097%=      5-min Rain = 0
KSC1 081659Z 33008KT 01/01 A3033 RMK A01 T00120007  RH  097%=      5-min Rain = 0
KSC1 081700Z 32010KT 01/01 A3033 RMK A01 T00120007  RH  097%=      5-min Rain = 0
KSC1 081701Z 33009KT 01/01 A3033 RMK A01 T00110007  RH  097%=      5-min Rain = 0
KSC1 081702Z 33008KT 01/01 A3033 RMK A01 T00110007  RH  097%=      5-min Rain = 0
KSC1 081703Z 33009KT 01/01 A3033 RMK A01 T00110007  RH  097%=      5-min Rain = 0
KSC1 081704Z 34009KT 01/01 A3033 RMK A01 T00110007  RH  097%=      5-min Rain = 0
KSC1 081705Z 33010KT 01/01 A3033 RMK A01 T00110007  RH  097%=      5-min Rain = 0
KSC1 081706Z 34009KT 01/01 A3033 RMK A01 T00110006  RH  097%=      5-min Rain = 0
KSC1 081707Z 34008KT 01/01 A3033 RMK A01 T00110006  RH  096%=      5-min Rain = 0
KSC1 081708Z 33007KT 01/01 A3033 RMK A01 T00110006  RH  097%=      5-min Rain = 0
KSC1 081709Z 33009KT 01/01 A3033 RMK A01 T00120007  RH  097%=      5-min Rain = 0
KSC1 081710Z 33009KT 01/01 A3033 RMK A01 T00120007  RH  097%=      5-min Rain = 0
KSC1 081711Z 33008KT 01/01 A3033 RMK A01 T00120007  RH  097%=      5-min Rain = 0
KSC1 081712Z 34010KT 01/01 A3033 RMK A01 T00120007  RH  097%=      5-min Rain = 0
KSC1 081713Z 34008KT 01/01 A3033 RMK A01 T00110006  RH  096%=      5-min Rain = 0
KSC1 081714Z 33006KT 01/01 A3033 RMK A01 T00110006  RH  097%=      5-min Rain = 0
KSC1 081715Z 34006KT 01/01 A3033 RMK A01 T00120008  RH  097%=      5-min Rain = 0
KSC1 081716Z 34006KT 01/01 A3033 RMK A01 T00130009  RH  097%=      5-min Rain = 0
KSC1 081717Z 34009KT 01/01 A3033 RMK A01 T00130009  RH  097%=      5-min Rain = 0
KSC1 081718Z 34008KT 01/01 A3033 RMK A01 T00130009  RH  097%=      5-min Rain = 0
KSC1 081719Z 34009KT 01/01 A3033 RMK A01 T00130008  RH  097%=      5-min Rain = 0
KSC1 081720Z 34011KT 01/01 A3032 RMK A01 T00130008  RH  097%=      5-min Rain = 0
KSC1 081721Z 34010KT 01/01 A3033 RMK A01 T00130007  RH  096%=      5-min Rain = 0
KSC1 081722Z 34010KT 01/01 A3032 RMK A01 T00120006  RH  096%=      5-min Rain = 0
KSC1 081723Z 35007KT 01/01 A3033 RMK A01 T00130006  RH  095%=      5-min Rain = 0
KSC1 081724Z 35007KT 01/01 A3032 RMK A01 T00120005  RH  095%=      5-min Rain = 0
KSC1 081725Z 34006KT 01/01 A3032 RMK A01 T00130007  RH  095%=      5-min Rain = 0
KSC1 081726Z 34008KT 01/01 A3032 RMK A01 T00140007  RH  095%=      5-min Rain = 0
KSC1 081727Z 34007KT 01/01 A3032 RMK A01 T00140007  RH  095%=      5-min Rain = 0
KSC1 081728Z 34008KT 01/01 A3032 RMK A01 T00140007  RH  095%=      5-min Rain = 0
KSC1 081729Z 34006KT 01/01 A3032 RMK A01 T00140006  RH  095%=      5-min Rain = 0
KSC1 081730Z 33005KT 01/01 A3032 RMK A01 T00140007  RH  095%=      5-min Rain = 0
KSC1 081731Z 33006KT 02/01 A3032 RMK A01 T00150008  RH  095%=      5-min Rain = 0
KSC1 081732Z 33009KT 02/01 A3032 RMK A01 T00150009  RH  096%=      5-min Rain = 0
KSC1 081733Z 34008KT 02/01 A3032 RMK A01 T00150009  RH  095%=      5-min Rain = 0
KSC1 081734Z 34009KT 02/01 A3032 RMK A01 T00160009  RH  096%=      5-min Rain = 0
KSC1 081735Z 34009KT 02/01 A3032 RMK A01 T00150009  RH  096%=      5-min Rain = 0
KSC1 081736Z 33006KT 02/01 A3032 RMK A01 T00150009  RH  096%=      5-min Rain = 0
KSC1 081737Z 32006KT 02/01 A3032 RMK A01 T00150009  RH  096%=      5-min Rain = 0
KSC1 081738Z 33006KT 02/01 A3032 RMK A01 T00150011  RH  097%=      5-min Rain = 0
KSC1 081739Z 32007KT 02/01 A3032 RMK A01 T00160011  RH  097%=      5-min Rain = 0
KSC1 081740Z 33008KT 02/01 A3032 RMK A01 T00160012  RH  097%=      5-min Rain = 0
KSC1 081741Z 33007KT 02/01 A3032 RMK A01 T00160011  RH  097%=      5-min Rain = 0
KSC1 081742Z 33008KT 02/01 A3032 RMK A01 T00160011  RH  097%=      5-min Rain = 0
KSC1 081743Z 32010KT 02/01 A3032 RMK A01 T00160011  RH  097%=      5-min Rain = 0
KSC1 081744Z 31008KT 02/01 A3032 RMK A01 T00150010  RH  096%=      5-min Rain = 0
KSC1 081745Z 32010KT 02/01 A3032 RMK A01 T00150009  RH  096%=      5-min Rain = 0
KSC1 081746Z 32009KT 02/01 A3032 RMK A01 T00150010  RH  097%=      5-min Rain = 0
KSC1 081747Z 32010KT 02/01 A3032 RMK A01 T00150010  RH  097%=      5-min Rain = 0
KSC1 081748Z 33009KT 02/01 A3032 RMK A01 T00150010  RH  096%=      5-min Rain = 0
KSC1 081749Z 33008KT 02/01 A3032 RMK A01 T00150010  RH  096%=      5-min Rain = 0
KSC1 081750Z 32008KT 02/01 A3032 RMK A01 T00150009  RH  096%=      5-min Rain = 0
KSC1 081751Z 34008KT 01/01 A3032 RMK A01 T00140009  RH  096%=      5-min Rain = 0
KSC1 081752Z 33007KT 01/01 A3032 RMK A01 T00140009  RH  096%=      5-min Rain = 0
KSC1 081753Z 35008KT 01/01 A3032 RMK A01 T00140009  RH  096%=      5-min Rain = 0
KSC1 081754Z 34007KT 01/01 A3032 RMK A01 T00140008  RH  095%=      5-min Rain = 0
KSC1 081755Z 33007KT 01/01 A3032 RMK A01 T00140008  RH  096%=      5-min Rain = 0
KSC1 081756Z 34008KT 01/01 A3032 RMK A01 T00140009  RH  096%=      5-min Rain = 0
KSC1 081757Z 34009KT 02/01 A3032 RMK A01 T00150009  RH  096%=      5-min Rain = 0
KSC1 081758Z 33007KT 02/01 A3032 RMK A01 T00150008  RH  095%=      5-min Rain = 0
KSC1 081759Z 33007G13KT 01/01 A3032 RMK A01 T00140007  RH  095%=      5-min Rain = 0
KSC1 081800Z 34010KT 02/01 A3032 RMK A01 T00150007  RH  095%=      5-min Rain = 0
KSC1 081801Z 34008KT 01/01 A3032 RMK A01 T00140007  RH  095%=      5-min Rain = 0
KSC1 081802Z 32007KT 01/01 A3031 RMK A01 T00140007  RH  095%=      5-min Rain = 0
KSC1 081803Z 32006KT 02/01 A3032 RMK A01 T00150008  RH  095%=      5-min Rain = 0
KSC1 081804Z 31006KT 02/01 A3031 RMK A01 T00150009  RH  096%=      5-min Rain = 0
KSC1 081805Z 32007G12KT 02/01 A3031 RMK A01 T00150010  RH  096%=      5-min Rain = 0
KSC1 081806Z 32010KT 02/01 A3031 RMK A01 T00150010  RH  096%=      5-min Rain = 0
KSC1 081807Z 33008KT 01/01 A3031 RMK A01 T00140008  RH  096%=      5-min Rain = 0
KSC1 081808Z 32007KT 01/01 A3031 RMK A01 T00140008  RH  096%=      5-min Rain = 0
KSC1 081809Z 33007KT 01/01 A3031 RMK A01 T00140009  RH  096%=      5-min Rain = 0
KSC1 081810Z 33008KT 01/01 A3031 RMK A01 T00140009  RH  096%=      5-min Rain = 0
KSC1 081811Z 33010KT 01/01 A3031 RMK A01 T00140009  RH  096%=      5-min Rain = 0
KSC1 081812Z 33008KT 01/01 A3031 RMK A01 T00130007  RH  096%=      5-min Rain = 0
KSC1 081813Z 33008KT 01/01 A3031 RMK A01 T00130007  RH  096%=      5-min Rain = 0
KSC1 081814Z 32005KT 01/01 A3031 RMK A01 T00130007  RH  096%=      5-min Rain = 0
KSC1 081815Z 32006KT 01/01 A3031 RMK A01 T00140009  RH  096%=      5-min Rain = 0
KSC1 081816Z 33006KT 01/01 A3031 RMK A01 T00140010  RH  097%=      5-min Rain = 0
KSC1 081817Z 32006KT 02/01 A3031 RMK A01 T00150010  RH  097%=      5-min Rain = 0
KSC1 081818Z 31007KT 02/01 A3031 RMK A01 T00150010  RH  096%=      5-min Rain = 0
KSC1 081819Z 32008KT 02/01 A3031 RMK A01 T00150010  RH  096%=      5-min Rain = 0
KSC1 081820Z 33008KT 02/01 A3031 RMK A01 T00150009  RH  096%=      5-min Rain = 0
KSC1 081821Z 32007KT 02/01 A3031 RMK A01 T00150009  RH  096%=      5-min Rain = 0
KSC1 081822Z 31006KT 02/01 A3031 RMK A01 T00150009  RH  096%=      5-min Rain = 0
KSC1 081823Z 32005KT 02/01 A3031 RMK A01 T00160011  RH  097%=      5-min Rain = 0
KSC1 081824Z 32009KT 02/01 A3031 RMK A01 T00160012  RH  097%=      5-min Rain = 0
KSC1 081825Z 32008KT 02/01 A3031 RMK A01 T00160011  RH  096%=      5-min Rain = 0
KSC1 081826Z 31008KT 02/01 A3031 RMK A01 T00150010  RH  096%=      5-min Rain = 0
KSC1 081827Z 32010KT 02/01 A3031 RMK A01 T00150009  RH  096%=      5-min Rain = 0
KSC1 081828Z 32008KT 02/01 A3031 RMK A01 T00150008  RH  096%=      5-min Rain = 0
KSC1 081829Z 32010KT 02/01 A3031 RMK A01 T00150009  RH  096%=      5-min Rain = 0
KSC1 081830Z 32009KT 02/01 A3031 RMK A01 T00150008  RH  095%=      5-min Rain = 0
KSC1 081831Z 32008KT 02/01 A303 RMK A01 T00150008  RH  095%=      5-min Rain = 0
KSC1 081832Z 32007KT 02/01 A303 RMK A01 T00150008  RH  095%=      5-min Rain = 0
KSC1 081833Z 32008KT 02/01 A303 RMK A01 T00160009  RH  096%=      5-min Rain = 0
KSC1 081834Z 32008KT 02/01 A303 RMK A01 T00160010  RH  096%=      5-min Rain = 0
KSC1 081835Z 32010KT 02/01 A303 RMK A01 T00160011  RH  096%=      5-min Rain = 0
KSC1 081836Z 31008G13KT 02/01 A303 RMK A01 T00160011  RH  096%=      5-min Rain = 0
KSC1 081837Z 31009KT 02/01 A303 RMK A01 T00160011  RH  096%=      5-min Rain = 0
KSC1 081838Z 31010KT 02/01 A303 RMK A01 T00160010  RH  096%=      5-min Rain = 0
KSC1 081839Z 31013KT 02/01 A303 RMK A01 T00150009  RH  096%=      5-min Rain = 0
KSC1 081840Z 31011KT 01/01 A303 RMK A01 T00140007  RH  095%=      5-min Rain = 0
KSC1 081841Z 31009KT 01/01 A303 RMK A01 T00140007  RH  095%=      5-min Rain = 0
KSC1 081842Z 32009KT 01/01 A303 RMK A01 T00140007  RH  096%=      5-min Rain = 0
KSC1 081843Z 31009KT 01/01 A303 RMK A01 T00140008  RH  096%=      5-min Rain = 0
KSC1 081844Z 32010KT 01/01 A303 RMK A01 T00140008  RH  096%=      5-min Rain = 0
KSC1 081845Z 32007KT 01/01 A303 RMK A01 T00140007  RH  095%=      5-min Rain = 0
KSC1 081846Z 31008KT 01/01 A303 RMK A01 T00140008  RH  096%=      5-min Rain = 0
KSC1 081847Z 32011KT 01/01 A303 RMK A01 T00140008  RH  096%=      5-min Rain = 0
KSC1 081848Z 32010KT 01/01 A303 RMK A01 T00140007  RH  095%=      5-min Rain = 0
KSC1 081849Z 32010KT 01/01 A303 RMK A01 T00140007  RH  095%=      5-min Rain = 0
KSC1 081850Z 33010KT 01/01 A303 RMK A01 T00130007  RH  095%=      5-min Rain = 0
KSC1 081851Z 32010KT 01/01 A303 RMK A01 T00130006  RH  095%=      5-min Rain = 0
KSC1 081852Z 32010KT 01/01 A303 RMK A01 T00130006  RH  095%=      5-min Rain = 0
KSC1 081853Z 32011KT 01/01 A303 RMK A01 T00130006  RH  095%=      5-min Rain = 0
KSC1 081854Z 33010KT 01/01 A303 RMK A01 T00130005  RH  095%=      5-min Rain = 0
KSC1 081855Z 32011KT 01/01 A303 RMK A01 T00130005  RH  095%=      5-min Rain = 0
KSC1 081856Z 33009KT 01/00 A303 RMK A01 T00130004  RH  094%=      5-min Rain = 0
KSC1 081857Z 32007KT 01/00 A303 RMK A01 T00120004  RH  094%=      5-min Rain = 0
KSC1 081858Z 32006KT 01/01 A303 RMK A01 T00130006  RH  095%=      5-min Rain = 0
KSC1 081859Z 33007KT 01/01 A303 RMK A01 T00140007  RH  095%=      5-min Rain = 0
KSC1 081900Z 33010KT 01/01 A303 RMK A01 T00140007  RH  095%=      5-min Rain = 0
KSC1 081901Z 33011KT 01/01 A303 RMK A01 T00140006  RH  094%=      5-min Rain = 0
KSC1 081902Z 32008KT 01/01 A3029 RMK A01 T00140005  RH  094%=      5-min Rain = 0
KSC1 081903Z 33010KT 01/01 A3029 RMK A01 T00140006  RH  094%=      5-min Rain = 0
KSC1 081904Z 32008KT 01/01 A3029 RMK A01 T00140006  RH  094%=      5-min Rain = 0
KSC1 081905Z 32006KT 02/01 A3029 RMK A01 T00150007  RH  094%=      5-min Rain = 0
KSC1 081906Z 32007KT 02/01 A3029 RMK A01 T00160008  RH  095%=      5-min Rain = 0
KSC1 081907Z 33007KT 02/01 A3029 RMK A01 T00160009  RH  095%=      5-min Rain = 0
KSC1 081908Z 33007KT 02/01 A3029 RMK A01 T00160008  RH  094%=      5-min Rain = 0
KSC1 081909Z 33008KT 02/01 A3029 RMK A01 T00170008  RH  094%=      5-min Rain = 0
KSC1 081910Z 33008KT 02/01 A3029 RMK A01 T00170008  RH  094%=      5-min Rain = 0
KSC1 081911Z 31006KT 02/01 A3029 RMK A01 T00170009  RH  095%=      5-min Rain = 0
KSC1 081912Z 32006G11KT 02/01 A3029 RMK A01 T00170010  RH  095%=      5-min Rain = 0
KSC1 081913Z 32011KT 02/01 A3029 RMK A01 T00180010  RH  095%=      5-min Rain = 0
KSC1 081914Z 32009KT 02/01 A3029 RMK A01 T00170008  RH  094%=      5-min Rain = 0
KSC1 081915Z 32009KT 02/01 A3029 RMK A01 T00170008  RH  094%=      5-min Rain = 0
KSC1 081916Z 32009KT 02/01 A3029 RMK A01 T00170008  RH  094%=      5-min Rain = 0
KSC1 081917Z 31006KT 02/01 A3029 RMK A01 T00170009  RH  094%=      5-min Rain = 0
KSC1 081918Z 31010KT 02/01 A3028 RMK A01 T00170010  RH  095%=      5-min Rain = 0
KSC1 081919Z 31008KT 02/01 A3028 RMK A01 T00170009  RH  095%=      5-min Rain = 0
KSC1 081920Z 31009KT 02/01 A3028 RMK A01 T00170009  RH  095%=      5-min Rain = 0
KSC1 081921Z 31008KT 02/01 A3028 RMK A01 T00170009  RH  095%=      5-min Rain = 0
KSC1 081922Z 31005KT 02/01 A3028 RMK A01 T00170010  RH  095%=      5-min Rain = 0
KSC1 081923Z 30008KT 02/01 A3028 RMK A01 T00180011  RH  096%=      5-min Rain = 0
KSC1 081924Z 30009KT 02/01 A3028 RMK A01 T00180011  RH  095%=      5-min Rain = 0
KSC1 081925Z 30006KT 02/01 A3028 RMK A01 T00170010  RH  095%=      5-min Rain = 0
KSC1 081926Z 30006KT 02/01 A3028 RMK A01 T00180011  RH  095%=      5-min Rain = 0
KSC1 081927Z 31008KT 02/01 A3028 RMK A01 T00180012  RH  095%=      5-min Rain = 0
KSC1 081928Z 30009KT 02/01 A3028 RMK A01 T00180011  RH  095%=      5-min Rain = 0
KSC1 081929Z 30009KT 02/01 A3028 RMK A01 T00180009  RH  094%=      5-min Rain = 0
KSC1 081930Z 31010KT 02/01 A3028 RMK A01 T00180009  RH  094%=      5-min Rain = 0
KSC1 081931Z 31008KT 02/01 A3028 RMK A01 T00170008  RH  094%=      5-min Rain = 0
KSC1 081932Z 31007KT 02/01 A3028 RMK A01 T00170009  RH  094%=      5-min Rain = 0
KSC1 081933Z 31010KT 02/01 A3028 RMK A01 T00180009  RH  094%=      5-min Rain = 0
KSC1 081934Z 31010KT 02/01 A3028 RMK A01 T00180010  RH  094%=      5-min Rain = 0
KSC1 081935Z 31009KT 02/01 A3028 RMK A01 T00190011  RH  094%=      5-min Rain = 0
KSC1 081936Z 30006KT 02/01 A3028 RMK A01 T00190011  RH  094%=      5-min Rain = 0
KSC1 081937Z 30006KT 02/01 A3028 RMK A01 T00190012  RH  095%=      5-min Rain = 0
KSC1 081938Z 30009KT 02/01 A3028 RMK A01 T00200013  RH  095%=      5-min Rain = 0
KSC1 081939Z 31009KT 02/01 A3028 RMK A01 T00200012  RH  095%=      5-min Rain = 0
KSC1 081940Z 30010KT 02/01 A3028 RMK A01 T00190012  RH  095%=      5-min Rain = 0
KSC1 081941Z 31009KT 02/01 A3028 RMK A01 T00190011  RH  095%=      5-min Rain = 0
KSC1 081942Z 30008KT 02/01 A3028 RMK A01 T00190011  RH  095%=      5-min Rain = 0
KSC1 081943Z 31007KT 02/01 A3028 RMK A01 T00190012  RH  095%=      5-min Rain = 0
KSC1 081944Z 31007G13KT 02/01 A3028 RMK A01 T00190012  RH  095%=      5-min Rain = 0
KSC1 081945Z 31012KT 02/01 A3028 RMK A01 T00200013  RH  095%=      5-min Rain = 0
KSC1 081946Z 31010KT 02/01 A3027 RMK A01 T00200012  RH  094%=      5-min Rain = 0
KSC1 081947Z 30007KT 02/01 A3027 RMK A01 T00190010  RH  094%=      5-min Rain = 0
KSC1 081948Z 30009KT 02/01 A3027 RMK A01 T00190010  RH  094%=      5-min Rain = 0
KSC1 081949Z 30007KT 02/01 A3027 RMK A01 T00200010  RH  093%=      5-min Rain = 0
KSC1 081950Z 31009KT 02/01 A3027 RMK A01 T00200011  RH  093%=      5-min Rain = 0
KSC1 081951Z 30007KT 02/01 A3027 RMK A01 T00210010  RH  093%=      5-min Rain = 0
KSC1 081952Z 32009KT 02/01 A3027 RMK A01 T00210009  RH  092%=      5-min Rain = 0
KSC1 081953Z 32008KT 02/01 A3027 RMK A01 T00210008  RH  091%=      5-min Rain = 0
KSC1 081954Z 32008KT 02/01 A3027 RMK A01 T00220008  RH  091%=      5-min Rain = 0
KSC1 081955Z 32010KT 02/01 A3027 RMK A01 T00220008  RH  091%=      5-min Rain = 0
KSC1 081956Z 33009KT 02/01 A3027 RMK A01 T00220008  RH  090%=      5-min Rain = 0
KSC1 081957Z 32006KT 02/01 A3027 RMK A01 T00220007  RH  090%=      5-min Rain = 0
KSC1 081958Z 32007KT 02/01 A3027 RMK A01 T00230009  RH  091%=      5-min Rain = 0
KSC1 081959Z 32011KT 02/01 A3027 RMK A01 T00240010  RH  091%=      5-min Rain = 0
KSC1 082000Z 33009KT 02/01 A3027 RMK A01 T00240009  RH  090%=      5-min Rain = 0
KSC1 082001Z 32009KT 02/01 A3027 RMK A01 T00240006  RH  088%=      5-min Rain = 0
KSC1 082002Z 32010KT 02/01 A3027 RMK A01 T00240008  RH  089%=      5-min Rain = 0
KSC1 082003Z 32008KT 02/01 A3027 RMK A01 T00240008  RH  089%=      5-min Rain = 0
KSC1 082004Z 32010KT 02/01 A3027 RMK A01 T00240009  RH  090%=      5-min Rain = 0
KSC1 082005Z 32006KT 02/01 A3027 RMK A01 T00240009  RH  090%=      5-min Rain = 0
KSC1 082006Z 31006G13KT 02/01 A3027 RMK A01 T00240010  RH  090%=      5-min Rain = 0
KSC1 082007Z 32010KT 03/01 A3027 RMK A01 T00250011  RH  091%=      5-min Rain = 0
KSC1 082008Z 32009KT 02/01 A3027 RMK A01 T00240011  RH  091%=      5-min Rain = 0
KSC1 082009Z 31008KT 02/01 A3027 RMK A01 T00240010  RH  091%=      5-min Rain = 0
KSC1 082010Z 31008KT 02/01 A3027 RMK A01 T00230010  RH  091%=      5-min Rain = 0
KSC1 082011Z 32011KT 02/01 A3027 RMK A01 T00240010  RH  091%=      5-min Rain = 0
KSC1 082012Z 33009KT 02/01 A3027 RMK A01 T00240009  RH  090%=      5-min Rain = 0
KSC1 082013Z 33010KT 02/01 A3027 RMK A01 T00240010  RH  091%=      5-min Rain = 0
KSC1 082014Z 32008KT 02/01 A3027 RMK A01 T00240010  RH  090%=      5-min Rain = 0
KSC1 082015Z 32011KT 02/01 A3027 RMK A01 T00240009  RH  090%=      5-min Rain = 0
KSC1 082016Z 33011KT 02/01 A3027 RMK A01 T00240008  RH  089%=      5-min Rain = 0
KSC1 082017Z 33011KT 02/01 A3027 RMK A01 T00240009  RH  090%=      5-min Rain = 0
KSC1 082018Z 33009G14KT 02/01 A3027 RMK A01 T00240009  RH  090%=      5-min Rain = 0
KSC1 082019Z 33009KT 02/01 A3027 RMK A01 T00240010  RH  090%=      5-min Rain = 0
KSC1 082020Z 33007KT 02/01 A3027 RMK A01 T00240010  RH  091%=      5-min Rain = 0
KSC1 082021Z 33009KT 03/01 A3027 RMK A01 T00250012  RH  091%=      5-min Rain = 0
KSC1 082022Z 32010KT 03/01 A3027 RMK A01 T00250011  RH  090%=      5-min Rain = 0
KSC1 082023Z 33010KT 03/01 A3027 RMK A01 T00250010  RH  090%=      5-min Rain = 0
KSC1 082024Z 32011KT 02/01 A3027 RMK A01 T00240009  RH  090%=      5-min Rain = 0
KSC1 082025Z 33008KT 02/01 A3027 RMK A01 T00240009  RH  090%=      5-min Rain = 0
KSC1 082026Z 33010KT 02/01 A3027 RMK A01 T00240009  RH  090%=      5-min Rain = 0
KSC1 082027Z 34011KT 02/01 A3027 RMK A01 T00230009  RH  090%=      5-min Rain = 0
KSC1 082028Z 35010KT 02/01 A3027 RMK A01 T00240008  RH  090%=      5-min Rain = 0
KSC1 082029Z 33012KT 02/01 A3027 RMK A01 T00230007  RH  089%=      5-min Rain = 0
KSC1 082030Z 34009KT 02/01 A3027 RMK A01 T00230007  RH  089%=      5-min Rain = 0
KSC1 082031Z 33009KT 02/01 A3027 RMK A01 T00230008  RH  090%=      5-min Rain = 0
KSC1 082032Z 33009G14KT 02/01 A3027 RMK A01 T00230009  RH  090%=      5-min Rain = 0
KSC1 082033Z 33010KT 02/01 A3027 RMK A01 T00230010  RH  091%=      5-min Rain = 0
KSC1 082034Z 33008KT 02/01 A3027 RMK A01 T00230009  RH  091%=      5-min Rain = 0
KSC1 082035Z 33007KT 02/01 A3027 RMK A01 T00230010  RH  091%=      5-min Rain = 0
KSC1 082036Z 31009KT 02/01 A3027 RMK A01 T00240010  RH  091%=      5-min Rain = 0
KSC1 082037Z 32010KT 02/01 A3027 RMK A01 T00240010  RH  090%=      5-min Rain = 0
KSC1 082038Z 33010KT 02/01 A3027 RMK A01 T00230010  RH  091%=      5-min Rain = 0
KSC1 082039Z 33008KT 02/01 A3027 RMK A01 T00230010  RH  091%=      5-min Rain = 0
KSC1 082040Z 33010KT 02/01 A3027 RMK A01 T00240011  RH  091%=      5-min Rain = 0
KSC1 082041Z 32007KT 02/01 A3027 RMK A01 T00240012  RH  091%=      5-min Rain = 0
KSC1 082042Z 32011KT 03/01 A3027 RMK A01 T00250013  RH  091%=      5-min Rain = 0
KSC1 082043Z 33010KT 03/01 A3027 RMK A01 T00250011  RH  090%=      5-min Rain = 0
KSC1 082044Z 32009KT 03/01 A3027 RMK A01 T00250010  RH  090%=      5-min Rain = 0
KSC1 082045Z 32010KT 03/01 A3027 RMK A01 T00250010  RH  090%=      5-min Rain = 0
KSC1 082046Z 32008KT 03/01 A3027 RMK A01 T00250009  RH  089%=      5-min Rain = 0
KSC1 082047Z 32008KT 03/01 A3027 RMK A01 T00250009  RH  089%=      5-min Rain = 0
KSC1 082048Z 32008KT 03/01 A3027 RMK A01 T00250009  RH  089%=      5-min Rain = 0
KSC1 082049Z 31010KT 03/01 A3027 RMK A01 T00250010  RH  089%=      5-min Rain = 0
KSC1 082050Z 32008KT 03/01 A3027 RMK A01 T00250010  RH  090%=      5-min Rain = 0
KSC1 082051Z 33010KT 03/01 A3027 RMK A01 T00250011  RH  090%=      5-min Rain = 0
KSC1 082052Z 33010KT 03/01 A3027 RMK A01 T00250010  RH  090%=      5-min Rain = 0
KSC1 082053Z 32009KT 03/01 A3027 RMK A01 T00250010  RH  089%=      5-min Rain = 0
KSC1 082054Z 33009G14KT 03/01 A3027 RMK A01 T00250010  RH  090%=      5-min Rain = 0
KSC1 082055Z 33011KT 03/01 A3027 RMK A01 T00260010  RH  090%=      5-min Rain = 0
KSC1 082056Z 32010KT 03/01 A3027 RMK A01 T00260010  RH  089%=      5-min Rain = 0
KSC1 082057Z 33010KT 03/01 A3027 RMK A01 T00250009  RH  089%=      5-min Rain = 0
KSC1 082058Z 33009KT 03/01 A3027 RMK A01 T00260011  RH  090%=      5-min Rain = 0
KSC1 082059Z 32009KT 03/01 A3027 RMK A01 T00250011  RH  090%=      5-min Rain = 0
KSC1 082100Z 32009KT 03/01 A3027 RMK A01 T00250010  RH  090%=      5-min Rain = 0
KSC1 082101Z 32008KT 03/01 A3027 RMK A01 T00250010  RH  090%=      5-min Rain = 0
KSC1 082102Z 32011KT 03/01 A3027 RMK A01 T00250011  RH  090%=      5-min Rain = 0
KSC1 082103Z 32008KT 03/01 A3027 RMK A01 T00250010  RH  089%=      5-min Rain = 0
KSC1 082104Z 33009KT 03/01 A3027 RMK A01 T00250011  RH  090%=      5-min Rain = 0
KSC1 082105Z 33009KT 03/01 A3027 RMK A01 T00260010  RH  090%=      5-min Rain = 0
KSC1 082106Z 33008KT 03/01 A3027 RMK A01 T00250010  RH  090%=      5-min Rain = 0
KSC1 082107Z 32010KT 03/01 A3027 RMK A01 T00250011  RH  090%=      5-min Rain = 0
KSC1 082108Z 32010KT 03/01 A3027 RMK A01 T00260011  RH  090%=      5-min Rain = 0
KSC1 082109Z 32009KT 03/01 A3027 RMK A01 T00260011  RH  090%=      5-min Rain = 0
KSC1 082110Z 32007KT 03/01 A3027 RMK A01 T00250010  RH  090%=      5-min Rain = 0
KSC1 082111Z 32006KT 03/01 A3027 RMK A01 T00250011  RH  090%=      5-min Rain = 0
KSC1 082112Z 34009KT 03/01 A3027 RMK A01 T00250012  RH  091%=      5-min Rain = 0
KSC1 082113Z 34008KT 03/01 A3027 RMK A01 T00260012  RH  091%=      5-min Rain = 0
KSC1 082114Z 34007KT 03/01 A3027 RMK A01 T00260012  RH  091%=      5-min Rain = 0
KSC1 082115Z 34009KT 03/01 A3027 RMK A01 T00260012  RH  091%=      5-min Rain = 0
KSC1 082116Z 34007KT 03/01 A3027 RMK A01 T00260012  RH  091%=      5-min Rain = 0
KSC1 082117Z 33008KT 03/01 A3027 RMK A01 T00260013  RH  091%=      5-min Rain = 0
KSC1 082118Z 34006KT 03/01 A3027 RMK A01 T00260013  RH  091%=      5-min Rain = 0
KSC1 082119Z 34008KT 03/01 A3027 RMK A01 T00260013  RH  091%=      5-min Rain = 0
KSC1 082120Z 34007KT 03/01 A3027 RMK A01 T00260013  RH  091%=      5-min Rain = 0
KSC1 082121Z 34009KT 03/01 A3027 RMK A01 T00270013  RH  091%=      5-min Rain = 0
KSC1 082122Z 34010KT 03/01 A3027 RMK A01 T00270012  RH  090%=      5-min Rain = 0
KSC1 082123Z 33009KT 03/01 A3027 RMK A01 T00260011  RH  090%=      5-min Rain = 0
KSC1 082124Z 34008KT 03/01 A3027 RMK A01 T00260011  RH  090%=      5-min Rain = 0
KSC1 082125Z 33008KT 03/01 A3027 RMK A01 T00260012  RH  090%=      5-min Rain = 0
KSC1 082126Z 34008KT 03/01 A3027 RMK A01 T00260012  RH  090%=      5-min Rain = 0
KSC1 082127Z 33006KT 03/01 A3027 RMK A01 T00260011  RH  090%=      5-min Rain = 0
KSC1 082128Z 33007KT 03/01 A3027 RMK A01 T00260013  RH  091%=      5-min Rain = 0
KSC1 082129Z 33007KT 03/01 A3027 RMK A01 T00270013  RH  091%=      5-min Rain = 0
KSC1 082130Z 33008KT 03/01 A3027 RMK A01 T00270013  RH  090%=      5-min Rain = 0
KSC1 082131Z 33006KT 03/01 A3027 RMK A01 T00270012  RH  089%=      5-min Rain = 0
KSC1 082132Z 34008KT 03/01 A3027 RMK A01 T00270012  RH  090%=      5-min Rain = 0
KSC1 082133Z 33007KT 03/01 A3027 RMK A01 T00270011  RH  089%=      5-min Rain = 0
KSC1 082134Z 32010KT 03/01 A3027 RMK A01 T00270011  RH  089%=      5-min Rain = 0
KSC1 082135Z 32008KT 03/01 A3027 RMK A01 T00270011  RH  089%=      5-min Rain = 0
KSC1 082136Z 32008KT 03/01 A3027 RMK A01 T00280012  RH  090%=      5-min Rain = 0
KSC1 082137Z 32008KT 03/01 A3027 RMK A01 T00280012  RH  089%=      5-min Rain = 0
KSC1 082138Z 32011KT 03/01 A3027 RMK A01 T00280012  RH  089%=      5-min Rain = 0
KSC1 082139Z 32010KT 03/01 A3027 RMK A01 T00280011  RH  089%=      5-min Rain = 0
KSC1 082140Z 31007KT 03/01 A3027 RMK A01 T00280011  RH  089%=      5-min Rain = 0
KSC1 082141Z 32008KT 03/01 A3027 RMK A01 T00280011  RH  089%=      5-min Rain = 0
KSC1 082142Z 32006KT 03/01 A3027 RMK A01 T00280012  RH  089%=      5-min Rain = 0
KSC1 082143Z 32007KT 03/01 A3027 RMK A01 T00280012  RH  089%=      5-min Rain = 0
KSC1 082144Z 33008KT 03/01 A3027 RMK A01 T00280012  RH  089%=      5-min Rain = 0
KSC1 082145Z 32008KT 03/01 A3027 RMK A01 T00280012  RH  089%=      5-min Rain = 0
KSC1 082146Z 32008KT 03/01 A3027 RMK A01 T00280011  RH  089%=      5-min Rain = 0
KSC1 082147Z 32009KT 03/01 A3027 RMK A01 T00280010  RH  088%=      5-min Rain = 0
KSC1 082148Z 32009KT 03/01 A3027 RMK A01 T00280010  RH  088%=      5-min Rain = 0
KSC1 082149Z 32008KT 03/01 A3027 RMK A01 T00280010  RH  088%=      5-min Rain = 0
KSC1 082150Z 32008KT 03/01 A3027 RMK A01 T00280010  RH  088%=      5-min Rain = 0
KSC1 082151Z 32007KT 03/01 A3027 RMK A01 T00280010  RH  088%=      5-min Rain = 0
KSC1 082152Z 32007KT 03/01 A3027 RMK A01 T00280010  RH  088%=      5-min Rain = 0
KSC1 082153Z 34007KT 03/01 A3027 RMK A01 T00280011  RH  088%=      5-min Rain = 0
KSC1 082154Z 33008KT 03/01 A3027 RMK A01 T00280011  RH  088%=      5-min Rain = 0
KSC1 082155Z 33006KT 03/01 A3026 RMK A01 T00280010  RH  088%=      5-min Rain = 0
KSC1 082156Z 34007KT 03/01 A3026 RMK A01 T00280010  RH  088%=      5-min Rain = 0
KSC1 082157Z 34007KT 03/01 A3026 RMK A01 T00280009  RH  087%=      5-min Rain = 0
KSC1 082158Z 33008KT 03/01 A3026 RMK A01 T00280009  RH  087%=      5-min Rain = 0
KSC1 082159Z 33008KT 03/01 A3026 RMK A01 T00290010  RH  087%=      5-min Rain = 0
KSC1 082200Z 34007KT 03/01 A3026 RMK A01 T00290010  RH  087%=      5-min Rain = 0
KSC1 082201Z 33007KT 03/01 A3026 RMK A01 T00290009  RH  087%=      5-min Rain = 0
KSC1 082202Z 34008KT 03/01 A3026 RMK A01 T00290008  RH  086%=      5-min Rain = 0
KSC1 082203Z 34008KT 03/01 A3026 RMK A01 T00290008  RH  086%=      5-min Rain = 0
KSC1 082204Z 34008KT 03/01 A3027 RMK A01 T00290009  RH  087%=      5-min Rain = 0
KSC1 082205Z 34008KT 03/01 A3027 RMK A01 T00290009  RH  087%=      5-min Rain = 0
KSC1 082206Z 34009KT 03/01 A3027 RMK A01 T00290009  RH  087%=      5-min Rain = 0
KSC1 082207Z 33009KT 03/01 A3027 RMK A01 T00290008  RH  086%=      5-min Rain = 0
KSC1 082208Z 33009KT 03/01 A3027 RMK A01 T00290009  RH  086%=      5-min Rain = 0
KSC1 082209Z 33009KT 03/01 A3027 RMK A01 T00290008  RH  086%=      5-min Rain = 0
KSC1 082210Z 34008KT 03/01 A3027 RMK A01 T00290008  RH  086%=      5-min Rain = 0
KSC1 082211Z 33007KT 03/01 A3027 RMK A01 T00290008  RH  086%=      5-min Rain = 0
KSC1 082212Z 32007KT 03/01 A3027 RMK A01 T00290008  RH  087%=      5-min Rain = 0
KSC1 082213Z 31005KT 03/01 A3027 RMK A01 T00290010  RH  087%=      5-min Rain = 0
KSC1 082214Z 32010KT 03/01 A3027 RMK A01 T00290010  RH  087%=      5-min Rain = 0
KSC1 082215Z 32009KT 03/01 A3027 RMK A01 T00290009  RH  087%=      5-min Rain = 0
KSC1 082216Z 33007KT 03/01 A3027 RMK A01 T00290009  RH  087%=      5-min Rain = 0
KSC1 082217Z 33009KT 03/01 A3026 RMK A01 T00290009  RH  087%=      5-min Rain = 0
KSC1 082218Z 33008KT 03/01 A3027 RMK A01 T00290008  RH  087%=      5-min Rain = 0
KSC1 082219Z 33007KT 03/01 A3026 RMK A01 T00290009  RH  087%=      5-min Rain = 0
KSC1 082220Z 34005KT 03/01 A3026 RMK A01 T00290010  RH  088%=      5-min Rain = 0
KSC1 082221Z 34006KT 03/01 A3026 RMK A01 T00290011  RH  088%=      5-min Rain = 0
KSC1 082222Z 33006KT 03/01 A3026 RMK A01 T00290010  RH  087%=      5-min Rain = 0
KSC1 082223Z 32006KT 03/01 A3026 RMK A01 T00280009  RH  087%=      5-min Rain = 0
KSC1 082224Z 32005KT 03/01 A3027 RMK A01 T00280009  RH  087%=      5-min Rain = 0
KSC1 082225Z 32006KT 03/01 A3027 RMK A01 T00280009  RH  087%=      5-min Rain = 0
KSC1 082226Z 32006KT 03/01 A3027 RMK A01 T00280009  RH  087%=      5-min Rain = 0
KSC1 082227Z 32006KT 03/01 A3027 RMK A01 T00280008  RH  087%=      5-min Rain = 0
KSC1 082228Z 32006KT 03/01 A3027 RMK A01 T00280009  RH  087%=      5-min Rain = 0
KSC1 082229Z 33006KT 03/01 A3027 RMK A01 T00280009  RH  087%=      5-min Rain = 0
KSC1 082230Z 32005KT 03/01 A3027 RMK A01 T00280009  RH  087%=      5-min Rain = 0
KSC1 082231Z 33005KT 03/01 A3027 RMK A01 T00280009  RH  087%=      5-min Rain = 0
KSC1 082232Z 32006KT 03/01 A3027 RMK A01 T00280009  RH  087%=      5-min Rain = 0
KSC1 082233Z 32006KT 03/01 A3027 RMK A01 T00280008  RH  086%=      5-min Rain = 0
KSC1 082234Z 32006KT 03/01 A3027 RMK A01 T00280008  RH  087%=      5-min Rain = 0
KSC1 082235Z 32005KT 03/01 A3027 RMK A01 T00280008  RH  087%=      5-min Rain = 0
KSC1 082236Z 33005KT 03/01 A3027 RMK A01 T00280009  RH  087%=      5-min Rain = 0
KSC1 082237Z 34005KT 03/01 A3027 RMK A01 T00280010  RH  088%=      5-min Rain = 0
KSC1 082238Z 34006KT 03/01 A3027 RMK A01 T00280009  RH  087%=      5-min Rain = 0
KSC1 082239Z 34005KT 03/01 A3027 RMK A01 T00280009  RH  087%=      5-min Rain = 0
KSC1 082240Z 34004KT 03/01 A3027 RMK A01 T00280009  RH  088%=      5-min Rain = 0
KSC1 082241Z 33005KT 03/01 A3027 RMK A01 T00290011  RH  088%=      5-min Rain = 0
KSC1 082242Z 32005KT 03/01 A3027 RMK A01 T00290011  RH  088%=      5-min Rain = 0
KSC1 082243Z 32005KT 03/01 A3027 RMK A01 T00290011  RH  088%=      5-min Rain = 0
KSC1 082244Z 32006KT 03/01 A3027 RMK A01 T00290011  RH  088%=      5-min Rain = 0
KSC1 082245Z 32005KT 03/01 A3027 RMK A01 T00280010  RH  088%=      5-min Rain = 0
KSC1 082246Z 31005KT 03/01 A3027 RMK A01 T00290010  RH  088%=      5-min Rain = 0
KSC1 082247Z 32004KT 03/01 A3027 RMK A01 T00290010  RH  088%=      5-min Rain = 0
KSC1 082248Z 32005KT 03/01 A3027 RMK A01 T00290011  RH  088%=      5-min Rain = 0
KSC1 082249Z 32005KT 03/01 A3027 RMK A01 T00290011  RH  088%=      5-min Rain = 0
KSC1 082250Z 32004KT 03/01 A3027 RMK A01 T00290012  RH  088%=      5-min Rain = 0
KSC1 082251Z 32005KT 03/01 A3027 RMK A01 T00290012  RH  089%=      5-min Rain = 0
KSC1 082252Z 33006KT 03/01 A3027 RMK A01 T00290011  RH  088%=      5-min Rain = 0
KSC1 082253Z 33005KT 03/01 A3027 RMK A01 T00290011  RH  088%=      5-min Rain = 0
KSC1 082254Z 32005KT 03/01 A3027 RMK A01 T00290011  RH  088%=      5-min Rain = 0
KSC1 082255Z 32005KT 03/01 A3028 RMK A01 T00290012  RH  089%=      5-min Rain = 0
KSC1 082256Z 33007KT 03/01 A3028 RMK A01 T00290012  RH  089%=      5-min Rain = 0
KSC1 082257Z 34006KT 03/01 A3028 RMK A01 T00290011  RH  088%=      5-min Rain = 0
KSC1 082258Z 34006KT 03/01 A3028 RMK A01 T00290011  RH  088%=      5-min Rain = 0
KSC1 082259Z 34007KT 03/01 A3028 RMK A01 T00290011  RH  088%=      5-min Rain = 0
KSC1 082300Z 33006KT 03/01 A3028 RMK A01 T00290011  RH  088%=      5-min Rain = 0
KSC1 082301Z 33007KT 03/01 A3028 RMK A01 T00290010  RH  088%=      5-min Rain = 0
KSC1 082302Z 32006KT 03/01 A3028 RMK A01 T00290010  RH  087%=      5-min Rain = 0
KSC1 082303Z 33007KT 03/01 A3028 RMK A01 T00290010  RH  088%=      5-min Rain = 0
KSC1 082304Z 33006KT 03/01 A3028 RMK A01 T00290010  RH  088%=      5-min Rain = 0
KSC1 082305Z 33007KT 03/01 A3028 RMK A01 T00290010  RH  088%=      5-min Rain = 0
KSC1 082306Z 34006KT 03/01 A3028 RMK A01 T00290010  RH  087%=      5-min Rain = 0
KSC1 082307Z 34005KT 03/01 A3028 RMK A01 T00290009  RH  087%=      5-min Rain = 0
KSC1 082308Z 33005KT 03/01 A3028 RMK A01 T00290009  RH  087%=      5-min Rain = 0
KSC1 082309Z 33005KT 03/01 A3028 RMK A01 T00290008  RH  087%=      5-min Rain = 0
KSC1 082310Z 33004KT 03/01 A3028 RMK A01 T00290008  RH  087%=      5-min Rain = 0
KSC1 082311Z 33005KT 03/01 A3028 RMK A01 T00290009  RH  087%=      5-min Rain = 0
KSC1 082312Z 33006KT 03/01 A3028 RMK A01 T00290009  RH  087%=      5-min Rain = 0
KSC1 082313Z 33006KT 03/01 A3028 RMK A01 T00290008  RH  086%=      5-min Rain = 0
KSC1 082314Z 32005KT 03/01 A3028 RMK A01 T00290008  RH  086%=      5-min Rain = 0
KSC1 082315Z 33005KT 03/01 A3028 RMK A01 T00290008  RH  086%=      5-min Rain = 0
KSC1 082316Z 33006KT 03/01 A3028 RMK A01 T00290008  RH  086%=      5-min Rain = 0
KSC1 082317Z 33005KT 03/01 A3028 RMK A01 T00290008  RH  087%=      5-min Rain = 0
KSC1 082318Z 33005KT 03/01 A3028 RMK A01 T00290008  RH  086%=      5-min Rain = 0
KSC1 082319Z 33004KT 03/01 A3028 RMK A01 T00290008  RH  086%=      5-min Rain = 0
KSC1 082320Z 33005KT 03/01 A3028 RMK A01 T00290009  RH  087%=      5-min Rain = 0
KSC1 082321Z 33005KT 03/01 A3028 RMK A01 T00280008  RH  086%=      5-min Rain = 0
KSC1 082322Z 33006KT 03/01 A3028 RMK A01 T00290008  RH  086%=      5-min Rain = 0
KSC1 082323Z 34007KT 03/01 A3028 RMK A01 T00290007  RH  086%=      5-min Rain = 0
KSC1 082324Z 32005KT 03/01 A3028 RMK A01 T00290007  RH  086%=      5-min Rain = 0
KSC1 082325Z 32003KT 03/01 A3028 RMK A01 T00290007  RH  086%=      5-min Rain = 0
KSC1 082326Z 33004KT 03/01 A3028 RMK A01 T00290008  RH  086%=      5-min Rain = 0
KSC1 082327Z 32004KT 03/01 A3028 RMK A01 T00290008  RH  086%=      5-min Rain = 0
KSC1 082328Z 32004KT 03/01 A3028 RMK A01 T00290008  RH  086%=      5-min Rain = 0
KSC1 082329Z 32005KT 03/01 A3028 RMK A01 T00290007  RH  086%=      5-min Rain = 0
KSC1 082330Z 32005KT 03/01 A3028 RMK A01 T00290006  RH  085%=      5-min Rain = 0
KSC1 082331Z 32004KT 03/01 A3028 RMK A01 T00280006  RH  085%=      5-min Rain = 0
KSC1 082332Z 32003KT 03/01 A3028 RMK A01 T00280007  RH  086%=      5-min Rain = 0
KSC1 082333Z 32004KT 03/01 A3028 RMK A01 T00290008  RH  086%=      5-min Rain = 0
KSC1 082334Z 32005KT 03/01 A3028 RMK A01 T00290007  RH  086%=      5-min Rain = 0
KSC1 082335Z 33005KT 03/01 A3028 RMK A01 T00290007  RH  086%=      5-min Rain = 0
KSC1 082336Z 32004KT 03/01 A3028 RMK A01 T00290007  RH  086%=      5-min Rain = 0
KSC1 082337Z 31003KT 03/01 A3028 RMK A01 T00290007  RH  086%=      5-min Rain = 0
KSC1 082338Z 32005KT 03/01 A3028 RMK A01 T00290008  RH  086%=      5-min Rain = 0
KSC1 082339Z 33006KT 03/01 A3028 RMK A01 T00290007  RH  086%=      5-min Rain = 0
KSC1 082340Z 32006KT 03/01 A3028 RMK A01 T00290007  RH  086%=      5-min Rain = 0
KSC1 082341Z 32005KT 03/01 A3028 RMK A01 T00290006  RH  085%=      5-min Rain = 0
KSC1 082342Z 32005KT 03/01 A3028 RMK A01 T00280007  RH  086%=      5-min Rain = 0
KSC1 082343Z 32005KT 03/01 A3029 RMK A01 T00290007  RH  086%=      5-min Rain = 0
KSC1 082344Z 32005KT 03/01 A3029 RMK A01 T00290007  RH  086%=      5-min Rain = 0
KSC1 082345Z 31004KT 03/01 A3029 RMK A01 T00280007  RH  086%=      5-min Rain = 0
KSC1 082346Z 31003KT 03/01 A3029 RMK A01 T00290008  RH  086%=      5-min Rain = 0
KSC1 082347Z 32004KT 03/01 A3029 RMK A01 T00290008  RH  087%=      5-min Rain = 0
KSC1 082348Z 32004KT 03/01 A3029 RMK A01 T00290008  RH  086%=      5-min Rain = 0
KSC1 082349Z 32004KT 03/01 A3029 RMK A01 T00290008  RH  087%=      5-min Rain = 0
KSC1 082350Z 31003KT 03/01 A3029 RMK A01 T00290008  RH  087%=      5-min Rain = 0
KSC1 082351Z 31004KT 03/01 A3029 RMK A01 T00290009  RH  087%=      5-min Rain = 0
KSC1 082352Z 31004KT 03/01 A3029 RMK A01 T00290009  RH  087%=      5-min Rain = 0
KSC1 082353Z 32004KT 03/01 A3029 RMK A01 T00290009  RH  087%=      5-min Rain = 0
KSC1 082354Z 32004KT 03/01 A3029 RMK A01 T00290009  RH  087%=      5-min Rain = 0
KSC1 082355Z 32003KT 03/01 A3029 RMK A01 T00290009  RH  087%=      5-min Rain = 0
KSC1 082356Z 32004KT 03/01 A3029 RMK A01 T00290010  RH  087%=      5-min Rain = 0
KSC1 082357Z 32005KT 03/01 A3029 RMK A01 T00290010  RH  087%=      5-min Rain = 0
KSC1 082358Z 32003KT 03/01 A3029 RMK A01 T00290010  RH  088%=      5-min Rain = 0
KSC1 082359Z 32004KT 03/01 A3029 RMK A01 T00290010  RH  088%=      5-min Rain = 0
KSC1 090000Z 32006KT 03/01 A3029 RMK A01 T00290010  RH  088%=      5-min Rain = 0
KSC1 090001Z 31004KT 03/01 A3029 RMK A01 T00290009  RH  087%=      5-min Rain = 0
KSC1 090002Z 31004KT 03/01 A3029 RMK A01 T00290009  RH  087%=      5-min Rain = 0
KSC1 090003Z 33005KT 03/01 A3029 RMK A01 T00290009  RH  087%=      5-min Rain = 0
KSC1 090004Z 32005KT 03/01 A3029 RMK A01 T00280009  RH  087%=      5-min Rain = 0
KSC1 090005Z 33006KT 03/01 A3029 RMK A01 T00290009  RH  087%=      5-min Rain = 0
KSC1 090006Z 33006KT 03/01 A3029 RMK A01 T00290008  RH  087%=      5-min Rain = 0
KSC1 090007Z 33004KT 03/01 A3028 RMK A01 T00290008  RH  086%=      5-min Rain = 0
KSC1 090008Z 32004KT 03/01 A3028 RMK A01 T00290008  RH  087%=      5-min Rain = 0
KSC1 090009Z 32004KT 03/01 A3028 RMK A01 T00280008  RH  087%=      5-min Rain = 0
KSC1 090010Z 33004KT 03/01 A3028 RMK A01 T00280008  RH  087%=      5-min Rain = 0
KSC1 090011Z 33004KT 03/01 A3028 RMK A01 T00280008  RH  087%=      5-min Rain = 0
KSC1 090012Z 33004KT 03/01 A3029 RMK A01 T00280009  RH  087%=      5-min Rain = 0
KSC1 090013Z 32005KT 03/01 A3029 RMK A01 T00280009  RH  087%=      5-min Rain = 0
KSC1 090014Z 31004KT 03/01 A3029 RMK A01 T00280009  RH  087%=      5-min Rain = 0
KSC1 090015Z 33004KT 03/01 A3029 RMK A01 T00280009  RH  088%=      5-min Rain = 0
KSC1 090016Z 32006KT 03/01 A3029 RMK A01 T00280009  RH  088%=      5-min Rain = 0
KSC1 090017Z 33005KT 03/01 A3029 RMK A01 T00280009  RH  087%=      5-min Rain = 0
KSC1 090018Z 32004KT 03/01 A3029 RMK A01 T00280009  RH  087%=      5-min Rain = 0
KSC1 090019Z 32006KT 03/01 A3029 RMK A01 T00280009  RH  088%=      5-min Rain = 0
KSC1 090020Z 32006KT 03/01 A3029 RMK A01 T00280009  RH  088%=      5-min Rain = 0
KSC1 090021Z 32006KT 03/01 A3029 RMK A01 T00280009  RH  087%=      5-min Rain = 0
KSC1 090022Z 33006KT 03/01 A3029 RMK A01 T00280009  RH  087%=      5-min Rain = 0
KSC1 090023Z 33005KT 03/01 A3029 RMK A01 T00280009  RH  087%=      5-min Rain = 0
KSC1 090024Z 33006KT 03/01 A3029 RMK A01 T00280009  RH  088%=      5-min Rain = 0
KSC1 090025Z 32004KT 03/01 A3029 RMK A01 T00280009  RH  087%=      5-min Rain = 0
KSC1 090026Z 32005KT 03/01 A3029 RMK A01 T00280009  RH  087%=      5-min Rain = 0
KSC1 090027Z 32005KT 03/01 A3029 RMK A01 T00280009  RH  087%=      5-min Rain = 0
KSC1 090028Z 32004KT 03/01 A3029 RMK A01 T00280009  RH  087%=      5-min Rain = 0
KSC1 090029Z 32005KT 03/01 A3029 RMK A01 T00280009  RH  087%=      5-min Rain = 0
KSC1 090030Z 32005KT 03/01 A3029 RMK A01 T00280009  RH  087%=      5-min Rain = 0
KSC1 090031Z 32004KT 03/01 A3029 RMK A01 T00280009  RH  087%=      5-min Rain = 0
KSC1 090032Z 32004KT 03/01 A3029 RMK A01 T00280009  RH  087%=      5-min Rain = 0
KSC1 090033Z 32005KT 03/01 A3029 RMK A01 T00280009  RH  088%=      5-min Rain = 0
KSC1 090034Z 33004KT 03/01 A3029 RMK A01 T00280009  RH  088%=      5-min Rain = 0
KSC1 090035Z 32005KT 03/01 A3029 RMK A01 T00280009  RH  087%=      5-min Rain = 0
KSC1 090036Z 32004KT 03/01 A3029 RMK A01 T00270009  RH  087%=      5-min Rain = 0
KSC1 090037Z 33004KT 03/01 A3029 RMK A01 T00280009  RH  088%=      5-min Rain = 0
KSC1 090038Z 33006KT 03/01 A3029 RMK A01 T00280009  RH  088%=      5-min Rain = 0
KSC1 090039Z 32005KT 03/01 A3029 RMK A01 T00280009  RH  087%=      5-min Rain = 0
KSC1 090040Z 32005KT 03/01 A3029 RMK A01 T00280009  RH  087%=      5-min Rain = 0
KSC1 090041Z 32005KT 03/01 A3029 RMK A01 T00280009  RH  087%=      5-min Rain = 0
KSC1 090042Z 32005KT 03/01 A3029 RMK A01 T00280009  RH  088%=      5-min Rain = 0
KSC1 090043Z 32005KT 03/01 A3029 RMK A01 T00280009  RH  088%=      5-min Rain = 0
KSC1 090044Z 33004KT 03/01 A3029 RMK A01 T00280009  RH  088%=      5-min Rain = 0
KSC1 090045Z 34003KT 03/01 A3029 RMK A01 T00280010  RH  088%=      5-min Rain = 0
KSC1 090046Z 33006KT 03/01 A3029 RMK A01 T00280010  RH  088%=      5-min Rain = 0
KSC1 090047Z 33006KT 03/01 A3029 RMK A01 T00280010  RH  088%=      5-min Rain = 0
KSC1 090048Z 33005KT 03/01 A3029 RMK A01 T00280009  RH  087%=      5-min Rain = 0
KSC1 090049Z 33006KT 03/01 A3029 RMK A01 T00280009  RH  087%=      5-min Rain = 0
KSC1 090050Z 33005KT 03/01 A3029 RMK A01 T00280009  RH  087%=      5-min Rain = 0
KSC1 090051Z 32004KT 03/01 A3029 RMK A01 T00280009  RH  087%=      5-min Rain = 0
KSC1 090052Z 32005KT 03/01 A3029 RMK A01 T00280009  RH  087%=      5-min Rain = 0
KSC1 090053Z 32004KT 03/01 A3029 RMK A01 T00280009  RH  087%=      5-min Rain = 0
KSC1 090054Z 32004KT 03/01 A3029 RMK A01 T00280009  RH  087%=      5-min Rain = 0
KSC1 090055Z 33005KT 03/01 A3029 RMK A01 T00280009  RH  088%=      5-min Rain = 0
KSC1 090056Z 33006KT 03/01 A3029 RMK A01 T00280010  RH  088%=      5-min Rain = 0
KSC1 090057Z 33005KT 03/01 A3029 RMK A01 T00280009  RH  087%=      5-min Rain = 0
KSC1 090058Z 34004KT 03/01 A3029 RMK A01 T00280009  RH  088%=      5-min Rain = 0
KSC1 090059Z 34005KT 03/01 A3029 RMK A01 T00290010  RH  088%=      5-min Rain = 0
KSC1 090100Z 33005KT 03/01 A303 RMK A01 T00290010  RH  087%=      5-min Rain = 0
KSC1 090101Z 33004KT 03/01 A303 RMK A01 T00290010  RH  088%=      5-min Rain = 0
KSC1 090102Z 34005KT 03/01 A303 RMK A01 T00290010  RH  088%=      5-min Rain = 0
KSC1 090103Z 34006KT 03/01 A3029 RMK A01 T00280010  RH  088%=      5-min Rain = 0
KSC1 090104Z 34005KT 03/01 A303 RMK A01 T00290010  RH  087%=      5-min Rain = 0
KSC1 090105Z 34005KT 03/01 A303 RMK A01 T00290009  RH  087%=      5-min Rain = 0
KSC1 090106Z 34005KT 03/01 A303 RMK A01 T00290010  RH  087%=      5-min Rain = 0
KSC1 090107Z 33004KT 03/01 A303 RMK A01 T00290010  RH  088%=      5-min Rain = 0
KSC1 090108Z 33004KT 03/01 A303 RMK A01 T00290011  RH  088%=      5-min Rain = 0
KSC1 090109Z 34004KT 03/01 A303 RMK A01 T00290011  RH  088%=      5-min Rain = 0
KSC1 090110Z 34005KT 03/01 A303 RMK A01 T00290011  RH  088%=      5-min Rain = 0
KSC1 090111Z 33004KT 03/01 A303 RMK A01 T00290010  RH  088%=      5-min Rain = 0
KSC1 090112Z 34005KT 03/01 A303 RMK A01 T00290011  RH  088%=      5-min Rain = 0
KSC1 090113Z 33004KT 03/01 A303 RMK A01 T00290011  RH  088%=      5-min Rain = 0
KSC1 090114Z 34007KT 03/01 A303 RMK A01 T00280011  RH  088%=      5-min Rain = 0
KSC1 090115Z 33006KT 03/01 A303 RMK A01 T00290011  RH  088%=      5-min Rain = 0
KSC1 090116Z 33007KT 03/01 A303 RMK A01 T00290010  RH  088%=      5-min Rain = 0
KSC1 090117Z 34005KT 03/01 A303 RMK A01 T00280010  RH  088%=      5-min Rain = 0
KSC1 090118Z 33005KT 03/01 A303 RMK A01 T00290011  RH  088%=      5-min Rain = 0
KSC1 090119Z 33006KT 03/01 A303 RMK A01 T00290012  RH  088%=      5-min Rain = 0
KSC1 090120Z 33006KT 03/01 A303 RMK A01 T00280011  RH  088%=      5-min Rain = 0
KSC1 090121Z 33007KT 03/01 A303 RMK A01 T00290011  RH  088%=      5-min Rain = 0
KSC1 090122Z 34006KT 03/01 A303 RMK A01 T00280010  RH  088%=      5-min Rain = 0
KSC1 090123Z 33006KT 03/01 A303 RMK A01 T00290010  RH  088%=      5-min Rain = 0
KSC1 090124Z 34007KT 03/01 A303 RMK A01 T00290011  RH  088%=      5-min Rain = 0
KSC1 090125Z 33006KT 03/01 A303 RMK A01 T00290010  RH  087%=      5-min Rain = 0
KSC1 090126Z 35005KT 03/01 A303 RMK A01 T00290010  RH  087%=      5-min Rain = 0
KSC1 090127Z 34004KT 03/01 A303 RMK A01 T00290010  RH  088%=      5-min Rain = 0
KSC1 090128Z 35006KT 03/01 A303 RMK A01 T00290011  RH  088%=      5-min Rain = 0
KSC1 090129Z 34005KT 03/01 A303 RMK A01 T00290010  RH  087%=      5-min Rain = 0
KSC1 090130Z 35005KT 03/01 A303 RMK A01 T00290010  RH  087%=      5-min Rain = 0
KSC1 090131Z 35005KT 03/01 A303 RMK A01 T00290010  RH  087%=      5-min Rain = 0
KSC1 090132Z 33004KT 03/01 A303 RMK A01 T00290010  RH  087%=      5-min Rain = 0
KSC1 090133Z 33004KT 03/01 A303 RMK A01 T00290010  RH  088%=      5-min Rain = 0
KSC1 090134Z 33004KT 03/01 A303 RMK A01 T00280010  RH  088%=      5-min Rain = 0
KSC1 090135Z 34005KT 03/01 A303 RMK A01 T00280010  RH  088%=      5-min Rain = 0
KSC1 090136Z 35004KT 03/01 A303 RMK A01 T00290010  RH  087%=      5-min Rain = 0
KSC1 090137Z 34005KT 03/01 A303 RMK A01 T00290011  RH  088%=      5-min Rain = 0
KSC1 090138Z 34006KT 03/01 A303 RMK A01 T00290010  RH  088%=      5-min Rain = 0
KSC1 090139Z 34005KT 03/01 A303 RMK A01 T00290010  RH  087%=      5-min Rain = 0
KSC1 090140Z 34005KT 03/01 A303 RMK A01 T00290010  RH  087%=      5-min Rain = 0
KSC1 090141Z 34004KT 03/01 A303 RMK A01 T00290010  RH  087%=      5-min Rain = 0
KSC1 090142Z 34003KT 03/01 A303 RMK A01 T00290010  RH  087%=      5-min Rain = 0
KSC1 090143Z 34003KT 03/01 A303 RMK A01 T00290010  RH  088%=      5-min Rain = 0
KSC1 090144Z 33003KT 03/01 A303 RMK A01 T00290010  RH  088%=      5-min Rain = 0
KSC1 090145Z 34005KT 03/01 A303 RMK A01 T00290011  RH  088%=      5-min Rain = 0
KSC1 090146Z 34004KT 03/01 A303 RMK A01 T00290010  RH  088%=      5-min Rain = 0
KSC1 090147Z 34004KT 03/01 A303 RMK A01 T00290010  RH  088%=      5-min Rain = 0
KSC1 090148Z 33003KT 03/01 A303 RMK A01 T00280010  RH  088%=      5-min Rain = 0
KSC1 090149Z 34004KT 03/01 A303 RMK A01 T00280010  RH  088%=      5-min Rain = 0
KSC1 090150Z 33005KT 03/01 A303 RMK A01 T00280010  RH  088%=      5-min Rain = 0
KSC1 090151Z 33004KT 03/01 A3031 RMK A01 T00280009  RH  087%=      5-min Rain = 0
KSC1 090152Z 33004KT 03/01 A3031 RMK A01 T00280009  RH  087%=      5-min Rain = 0
KSC1 090153Z 33005KT 03/01 A3031 RMK A01 T00280009  RH  087%=      5-min Rain = 0
KSC1 090154Z 34004KT 03/01 A3031 RMK A01 T00280009  RH  087%=      5-min Rain = 0
KSC1 090155Z 34005KT 03/01 A3031 RMK A01 T00280009  RH  087%=      5-min Rain = 0
KSC1 090156Z 33004KT 03/01 A3031 RMK A01 T00280009  RH  087%=      5-min Rain = 0
KSC1 090157Z 34004KT 03/01 A3031 RMK A01 T00280009  RH  087%=      5-min Rain = 0
KSC1 090158Z 33003KT 03/01 A3031 RMK A01 T00280010  RH  088%=      5-min Rain = 0
KSC1 090159Z 33004KT 03/01 A3031 RMK A01 T00280010  RH  088%=      5-min Rain = 0
KSC1 090200Z 34004KT 03/01 A3031 RMK A01 T00280011  RH  088%=      5-min Rain = 0
KSC1 090201Z 35004KT 03/01 A3031 RMK A01 T00280010  RH  088%=      5-min Rain = 0
KSC1 090202Z 33005KT 03/01 A3031 RMK A01 T00280009  RH  088%=      5-min Rain = 0
KSC1 090203Z 34005KT 03/01 A3031 RMK A01 T00280009  RH  087%=      5-min Rain = 0
KSC1 090204Z 34004KT 03/01 A3031 RMK A01 T00280008  RH  087%=      5-min Rain = 0
KSC1 090205Z 35005KT 03/01 A3031 RMK A01 T00280008  RH  087%=      5-min Rain = 0
KSC1 090206Z 34004KT 03/01 A3031 RMK A01 T00280008  RH  087%=      5-min Rain = 0
KSC1 090207Z 34005KT 03/01 A3031 RMK A01 T00280009  RH  087%=      5-min Rain = 0
KSC1 090208Z 34006KT 03/01 A3031 RMK A01 T00280008  RH  087%=      5-min Rain = 0
KSC1 090209Z 33004KT 03/01 A3031 RMK A01 T00280007  RH  087%=      5-min Rain = 0
KSC1 090210Z 33004KT 03/01 A3031 RMK A01 T00280007  RH  087%=      5-min Rain = 0
KSC1 090211Z 33005KT 03/01 A3031 RMK A01 T00280008  RH  087%=      5-min Rain = 0
KSC1 090212Z 33004KT 03/01 A3031 RMK A01 T00280008  RH  087%=      5-min Rain = 0
KSC1 090213Z 33004KT 03/01 A3031 RMK A01 T00280008  RH  087%=      5-min Rain = 0
KSC1 090214Z 32005KT 03/01 A3032 RMK A01 T00280008  RH  087%=      5-min Rain = 0
KSC1 090215Z 31004KT 03/01 A3032 RMK A01 T00280007  RH  086%=      5-min Rain = 0
KSC1 090216Z 31005KT 03/01 A3032 RMK A01 T00280007  RH  087%=      5-min Rain = 0
KSC1 090217Z 30004KT 03/01 A3032 RMK A01 T00280008  RH  087%=      5-min Rain = 0
KSC1 090218Z 30003KT 03/01 A3032 RMK A01 T00280008  RH  087%=      5-min Rain = 0
KSC1 090219Z 31003KT 03/01 A3032 RMK A01 T00280008  RH  087%=      5-min Rain = 0
KSC1 090220Z 32004KT 03/01 A3032 RMK A01 T00280009  RH  087%=      5-min Rain = 0
KSC1 090221Z 30003KT 03/01 A3032 RMK A01 T00280008  RH  087%=      5-min Rain = 0
KSC1 090222Z 30004KT 03/01 A3032 RMK A01 T00280008  RH  087%=      5-min Rain = 0
KSC1 090223Z 31003KT 03/01 A3032 RMK A01 T00280008  RH  087%=      5-min Rain = 0
KSC1 090224Z 32004KT 03/01 A3032 RMK A01 T00280008  RH  087%=      5-min Rain = 0
KSC1 090225Z 32004KT 03/01 A3032 RMK A01 T00280008  RH  087%=      5-min Rain = 0
KSC1 090226Z 32005KT 03/01 A3032 RMK A01 T00280008  RH  087%=      5-min Rain = 0
KSC1 090227Z 32004KT 03/01 A3032 RMK A01 T00280008  RH  087%=      5-min Rain = 0
KSC1 090228Z 33004KT 03/01 A3032 RMK A01 T00280008  RH  087%=      5-min Rain = 0
KSC1 090229Z 32003KT 03/01 A3032 RMK A01 T00280008  RH  087%=      5-min Rain = 0
KSC1 090230Z 33003KT 03/01 A3032 RMK A01 T00280008  RH  087%=      5-min Rain = 0
KSC1 090231Z 32003KT 03/01 A3032 RMK A01 T00280008  RH  087%=      5-min Rain = 0
KSC1 090232Z 33002KT 03/01 A3032 RMK A01 T00280008  RH  087%=      5-min Rain = 0
KSC1 090233Z 33003KT 03/01 A3032 RMK A01 T00280008  RH  087%=      5-min Rain = 0
KSC1 090234Z 31002KT 03/01 A3032 RMK A01 T00280009  RH  087%=      5-min Rain = 0
KSC1 090235Z 33002KT 03/01 A3032 RMK A01 T00280009  RH  088%=      5-min Rain = 0
KSC1 090236Z 33003KT 03/01 A3032 RMK A01 T00280009  RH  088%=      5-min Rain = 0
KSC1 090237Z 33003KT 03/01 A3032 RMK A01 T00280009  RH  088%=      5-min Rain = 0
KSC1 090238Z 32004KT 03/01 A3032 RMK A01 T00280009  RH  087%=      5-min Rain = 0
KSC1 090239Z 33004KT 03/01 A3032 RMK A01 T00280009  RH  087%=      5-min Rain = 0
KSC1 090240Z 33003KT 03/01 A3032 RMK A01 T00280008  RH  087%=      5-min Rain = 0
KSC1 090241Z 33004KT 03/01 A3032 RMK A01 T00280009  RH  087%=      5-min Rain = 0
KSC1 090242Z 34003KT 03/01 A3032 RMK A01 T00280008  RH  087%=      5-min Rain = 0
KSC1 090243Z 33002KT 03/01 A3032 RMK A01 T00280008  RH  087%=      5-min Rain = 0
KSC1 090244Z 34003KT 03/01 A3031 RMK A01 T00280008  RH  087%=      5-min Rain = 0
KSC1 090245Z 33002KT 03/01 A3031 RMK A01 T00280008  RH  087%=      5-min Rain = 0
KSC1 090246Z 32002KT 03/01 A3031 RMK A01 T00280009  RH  087%=      5-min Rain = 0
KSC1 090247Z 33003KT 03/01 A3032 RMK A01 T00280009  RH  087%=      5-min Rain = 0
KSC1 090248Z 33003KT 03/01 A3032 RMK A01 T00280009  RH  087%=      5-min Rain = 0
KSC1 090249Z 33003KT 03/01 A3032 RMK A01 T00280009  RH  087%=      5-min Rain = 0
KSC1 090250Z 34003KT 03/01 A3032 RMK A01 T00280009  RH  088%=      5-min Rain = 0
KSC1 090251Z 32002KT 03/01 A3032 RMK A01 T00280009  RH  088%=      5-min Rain = 0
KSC1 090252Z 32002KT 03/01 A3032 RMK A01 T00280010  RH  088%=      5-min Rain = 0
KSC1 090253Z 32003KT 03/01 A3032 RMK A01 T00280010  RH  088%=      5-min Rain = 0
KSC1 090254Z 31002KT 03/01 A3032 RMK A01 T00280009  RH  088%=      5-min Rain = 0
KSC1 090255Z 31003KT 03/01 A3032 RMK A01 T00280009  RH  088%=      5-min Rain = 0
KSC1 090256Z 31002KT 03/01 A3032 RMK A01 T00280009  RH  088%=      5-min Rain = 0
KSC1 090257Z 30002KT 03/01 A3032 RMK A01 T00280009  RH  088%=      5-min Rain = 0
KSC1 090258Z 30002KT 03/01 A3032 RMK A01 T00280010  RH  088%=      5-min Rain = 0
KSC1 090259Z 30002KT 03/01 A3032 RMK A01 T00280010  RH  088%=      5-min Rain = 0
KSC1 090300Z 31003KT 03/01 A3032 RMK A01 T00280010  RH  088%=      5-min Rain = 0
KSC1 090301Z 32003KT 03/01 A3032 RMK A01 T00280010  RH  088%=      5-min Rain = 0
KSC1 090302Z 32003KT 03/01 A3032 RMK A01 T00280010  RH  088%=      5-min Rain = 0
KSC1 090303Z 32003KT 03/01 A3032 RMK A01 T00280009  RH  087%=      5-min Rain = 0
KSC1 090304Z 33003KT 03/01 A3032 RMK A01 T00280008  RH  087%=      5-min Rain = 0
KSC1 090305Z 32002KT 03/01 A3032 RMK A01 T00280008  RH  087%=      5-min Rain = 0
KSC1 090306Z 33003KT 03/01 A3032 RMK A01 T00280008  RH  087%=      5-min Rain = 0
KSC1 090307Z 34003KT 03/01 A3032 RMK A01 T00280008  RH  087%=      5-min Rain = 0
KSC1 090308Z 33003KT 03/01 A3032 RMK A01 T00280009  RH  087%=      5-min Rain = 0
KSC1 090309Z 33003KT 03/01 A3032 RMK A01 T00280009  RH  087%=      5-min Rain = 0
KSC1 090310Z 34003KT 03/01 A3032 RMK A01 T00280008  RH  087%=      5-min Rain = 0
KSC1 090311Z 33004KT 03/01 A3032 RMK A01 T00280007  RH  086%=      5-min Rain = 0
KSC1 090312Z 33003KT 03/01 A3032 RMK A01 T00280007  RH  086%=      5-min Rain = 0
KSC1 090313Z 32004KT 03/01 A3032 RMK A01 T00280007  RH  086%=      5-min Rain = 0
KSC1 090314Z 32003KT 03/01 A3032 RMK A01 T00280008  RH  087%=      5-min Rain = 0
KSC1 090315Z 31003KT 03/01 A3032 RMK A01 T00280008  RH  087%=      5-min Rain = 0
KSC1 090316Z 30003KT 03/01 A3032 RMK A01 T00280008  RH  087%=      5-min Rain = 0
KSC1 090317Z 30003KT 03/01 A3032 RMK A01 T00280008  RH  087%=      5-min Rain = 0
KSC1 090318Z 30004KT 03/01 A3032 RMK A01 T00280008  RH  087%=      5-min Rain = 0
KSC1 090319Z 29003KT 03/01 A3032 RMK A01 T00280008  RH  087%=      5-min Rain = 0
KSC1 090320Z 29004KT 03/01 A3032 RMK A01 T00280008  RH  086%=      5-min Rain = 0
KSC1 090321Z 29003KT 03/01 A3032 RMK A01 T00280007  RH  086%=      5-min Rain = 0
KSC1 090322Z 28003KT 03/01 A3032 RMK A01 T00280008  RH  087%=      5-min Rain = 0
KSC1 090323Z 28003KT 03/01 A3032 RMK A01 T00280008  RH  087%=      5-min Rain = 0
KSC1 090324Z 28004KT 03/01 A3032 RMK A01 T00280009  RH  087%=      5-min Rain = 0
KSC1 090325Z 28003KT 03/01 A3032 RMK A01 T00280009  RH  087%=      5-min Rain = 0
KSC1 090326Z 27003KT 03/01 A3032 RMK A01 T00280008  RH  087%=      5-min Rain = 0
KSC1 090327Z 28003KT 03/01 A3032 RMK A01 T00280009  RH  087%=      5-min Rain = 0
KSC1 090328Z 29003KT 03/01 A3032 RMK A01 T00280009  RH  087%=      5-min Rain = 0
KSC1 090329Z 30003KT 03/01 A3032 RMK A01 T00280009  RH  087%=      5-min Rain = 0
KSC1 090330Z 30003KT 03/01 A3032 RMK A01 T00280009  RH  087%=      5-min Rain = 0
KSC1 090331Z 30003KT 03/01 A3032 RMK A01 T00280009  RH  087%=      5-min Rain = 0
KSC1 090332Z 30003KT 03/01 A3032 RMK A01 T00280008  RH  087%=      5-min Rain = 0
KSC1 090333Z 31003KT 03/01 A3032 RMK A01 T00280008  RH  087%=      5-min Rain = 0
KSC1 090334Z 30003KT 03/01 A3032 RMK A01 T00280009  RH  087%=      5-min Rain = 0
KSC1 090335Z 29003KT 03/01 A3032 RMK A01 T00280008  RH  087%=      5-min Rain = 0
KSC1 090336Z 29004KT 03/01 A3032 RMK A01 T00280009  RH  087%=      5-min Rain = 0
KSC1 090337Z 28003KT 03/01 A3032 RMK A01 T00280009  RH  087%=      5-min Rain = 0
KSC1 090338Z 27003KT 03/01 A3032 RMK A01 T00280009  RH  087%=      5-min Rain = 0
KSC1 090339Z 26004KT 03/01 A3032 RMK A01 T00280009  RH  088%=      5-min Rain = 0
KSC1 090340Z 26004KT 03/01 A3032 RMK A01 T00280010  RH  088%=      5-min Rain = 0
KSC1 090341Z 26004KT 03/01 A3032 RMK A01 T00280010  RH  088%=      5-min Rain = 0
KSC1 090342Z 27003KT 03/01 A3032 RMK A01 T00280010  RH  088%=      5-min Rain = 0
KSC1 090343Z 27003KT 03/01 A3032 RMK A01 T00280011  RH  088%=      5-min Rain = 0
KSC1 090344Z 27004KT 03/01 A3033 RMK A01 T00280011  RH  089%=      5-min Rain = 0
KSC1 090345Z 27004KT 03/01 A3032 RMK A01 T00280011  RH  089%=      5-min Rain = 0
KSC1 090346Z 27003KT 03/01 A3032 RMK A01 T00280011  RH  089%=      5-min Rain = 0
KSC1 090347Z 28004KT 03/01 A3032 RMK A01 T00280011  RH  088%=      5-min Rain = 0
KSC1 090348Z 29004KT 03/01 A3032 RMK A01 T00280010  RH  088%=      5-min Rain = 0
KSC1 090349Z 29002KT 03/01 A3032 RMK A01 T00280010  RH  088%=      5-min Rain = 0
KSC1 090350Z 30003KT 03/01 A3032 RMK A01 T00280010  RH  088%=      5-min Rain = 0
KSC1 090351Z 30003KT 03/01 A3032 RMK A01 T00280009  RH  088%=      5-min Rain = 0
KSC1 090352Z 30003KT 03/01 A3032 RMK A01 T00280009  RH  087%=      5-min Rain = 0
KSC1 090353Z 29003KT 03/01 A3032 RMK A01 T00280009  RH  087%=      5-min Rain = 0
KSC1 090354Z 29004KT 03/01 A3032 RMK A01 T00280009  RH  087%=      5-min Rain = 0
KSC1 090355Z 29003KT 03/01 A3032 RMK A01 T00280009  RH  087%=      5-min Rain = 0
KSC1 090356Z 28003KT 03/01 A3032 RMK A01 T00280009  RH  087%=      5-min Rain = 0
KSC1 090357Z 28004KT 03/01 A3032 RMK A01 T00280009  RH  087%=      5-min Rain = 0
KSC1 090358Z 28003KT 03/01 A3032 RMK A01 T00280009  RH  087%=      5-min Rain = 0
KSC1 090359Z 28003KT 03/01 A3032 RMK A01 T00280009  RH  088%=      5-min Rain = 0
KSC1 090400Z 27002KT 03/01 A3032 RMK A01 T00280010  RH  088%=      5-min Rain = 0
KSC1 090401Z 27002KT 03/01 A3032 RMK A01 T00280010  RH  088%=      5-min Rain = 0
KSC1 090402Z 26002KT 03/01 A3032 RMK A01 T00280010  RH  088%=      5-min Rain = 0
KSC1 090403Z 27002KT 03/01 A3032 RMK A01 T00280011  RH  088%=      5-min Rain = 0
KSC1 090404Z 26002KT 03/01 A3032 RMK A01 T00280011  RH  088%=      5-min Rain = 0
KSC1 090405Z 26003KT 03/01 A3032 RMK A01 T00280011  RH  088%=      5-min Rain = 0
KSC1 090406Z 26003KT 03/01 A3032 RMK A01 T00280011  RH  089%=      5-min Rain = 0
KSC1 090407Z 27002KT 03/01 A3032 RMK A01 T00280011  RH  089%=      5-min Rain = 0
KSC1 090408Z 27003KT 03/01 A3032 RMK A01 T00280011  RH  089%=      5-min Rain = 0
KSC1 090409Z 27002KT 03/01 A3032 RMK A01 T00280011  RH  089%=      5-min Rain = 0
KSC1 090410Z 27003KT 03/01 A3032 RMK A01 T00280011  RH  089%=      5-min Rain = 0
KSC1 090411Z 27003KT 03/01 A3032 RMK A01 T00280011  RH  089%=      5-min Rain = 0
KSC1 090412Z 27003KT 03/01 A3032 RMK A01 T00280011  RH  089%=      5-min Rain = 0
KSC1 090413Z 27003KT 03/01 A3032 RMK A01 T00270011  RH  089%=      5-min Rain = 0
KSC1 090414Z 27003KT 03/01 A3032 RMK A01 T00280012  RH  089%=      5-min Rain = 0
KSC1 090415Z 27004KT 03/01 A3032 RMK A01 T00280012  RH  089%=      5-min Rain = 0
KSC1 090416Z 26003KT 03/01 A3033 RMK A01 T00280012  RH  089%=      5-min Rain = 0
KSC1 090417Z 26003KT 03/01 A3033 RMK A01 T00280012  RH  089%=      5-min Rain = 0
KSC1 090418Z 25003KT 03/01 A3033 RMK A01 T00280012  RH  089%=      5-min Rain = 0
KSC1 090419Z 25003KT 03/01 A3033 RMK A01 T00280012  RH  089%=      5-min Rain = 0
KSC1 090420Z 25003KT 03/01 A3033 RMK A01 T00280012  RH  090%=      5-min Rain = 0
KSC1 090421Z 25004KT 03/01 A3033 RMK A01 T00280013  RH  090%=      5-min Rain = 0
KSC1 090422Z 25004KT 03/01 A3033 RMK A01 T00280013  RH  090%=      5-min Rain = 0
KSC1 090423Z 25004KT 03/01 A3033 RMK A01 T00280013  RH  090%=      5-min Rain = 0
KSC1 090424Z 25004KT 03/01 A3033 RMK A01 T00280013  RH  090%=      5-min Rain = 0
KSC1 090425Z 25004KT 03/01 A3033 RMK A01 T00280013  RH  090%=      5-min Rain = 0
KSC1 090426Z 26003KT 03/01 A3033 RMK A01 T00280013  RH  090%=      5-min Rain = 0
KSC1 090427Z 26003KT 03/01 A3033 RMK A01 T00270012  RH  090%=      5-min Rain = 0
KSC1 090428Z 26004KT 03/01 A3033 RMK A01 T00280013  RH  090%=      5-min Rain = 0
KSC1 090429Z 26003KT 03/01 A3033 RMK A01 T00280012  RH  090%=      5-min Rain = 0
KSC1 090430Z 25003KT 03/01 A3033 RMK A01 T00280012  RH  090%=      5-min Rain = 0
KSC1 090431Z 25003KT 03/01 A3033 RMK A01 T00280013  RH  090%=      5-min Rain = 0
KSC1 090432Z 26003KT 03/01 A3033 RMK A01 T00280012  RH  090%=      5-min Rain = 0
KSC1 090433Z 26002KT 03/01 A3033 RMK A01 T00280012  RH  090%=      5-min Rain = 0
KSC1 090434Z 26002KT 03/01 A3033 RMK A01 T00280013  RH  090%=      5-min Rain = 0
KSC1 090435Z 26002KT 03/01 A3033 RMK A01 T00280012  RH  090%=      5-min Rain = 0
KSC1 090436Z 26003KT 03/01 A3033 RMK A01 T00280013  RH  090%=      5-min Rain = 0
KSC1 090437Z 27002KT 03/01 A3033 RMK A01 T00280012  RH  090%=      5-min Rain = 0
KSC1 090438Z 27003KT 03/01 A3033 RMK A01 T00280013  RH  090%=      5-min Rain = 0
KSC1 090439Z 26002KT 03/01 A3033 RMK A01 T00280012  RH  090%=      5-min Rain = 0
KSC1 090440Z 28001KT 03/01 A3033 RMK A01 T00280013  RH  090%=      5-min Rain = 0
KSC1 090441Z 26002KT 03/01 A3033 RMK A01 T00280013  RH  090%=      5-min Rain = 0
KSC1 090442Z 26002KT 03/01 A3033 RMK A01 T00280013  RH  090%=      5-min Rain = 0
KSC1 090443Z 27003KT 03/01 A3033 RMK A01 T00280013  RH  090%=      5-min Rain = 0
KSC1 090444Z 27002KT 03/01 A3033 RMK A01 T00280013  RH  090%=      5-min Rain = 0
KSC1 090445Z 28002KT 03/01 A3033 RMK A01 T00280013  RH  090%=      5-min Rain = 0
KSC1 090446Z 28002KT 03/01 A3033 RMK A01 T00280013  RH  090%=      5-min Rain = 0
KSC1 090447Z 27002KT 03/01 A3033 RMK A01 T00280012  RH  090%=      5-min Rain = 0
KSC1 090448Z 27002KT 03/01 A3033 RMK A01 T00280013  RH  090%=      5-min Rain = 0
KSC1 090449Z 26002KT 03/01 A3033 RMK A01 T00280013  RH  090%=      5-min Rain = 0
KSC1 090450Z 26002KT 03/01 A3033 RMK A01 T00280013  RH  090%=      5-min Rain = 0
KSC1 090451Z 27002KT 03/01 A3033 RMK A01 T00280013  RH  090%=      5-min Rain = 0
KSC1 090452Z 27002KT 03/01 A3033 RMK A01 T00280014  RH  090%=      5-min Rain = 0
KSC1 090453Z 27001KT 03/01 A3033 RMK A01 T00280014  RH  090%=      5-min Rain = 0
KSC1 090454Z 27002KT 03/01 A3033 RMK A01 T00280014  RH  090%=      5-min Rain = 0
KSC1 090455Z 28002KT 03/01 A3033 RMK A01 T00280014  RH  090%=      5-min Rain = 0
KSC1 090456Z 29002KT 03/01 A3033 RMK A01 T00280014  RH  091%=      5-min Rain = 0
KSC1 090457Z 29002KT 03/01 A3033 RMK A01 T00280014  RH  091%=      5-min Rain = 0
KSC1 090458Z 28002KT 03/01 A3033 RMK A01 T00280014  RH  091%=      5-min Rain = 0
KSC1 090459Z 28002KT 03/01 A3033 RMK A01 T00280014  RH  091%=      5-min Rain = 0
KSC1 090500Z 27002KT 03/01 A3033 RMK A01 T00280014  RH  091%=      5-min Rain = 0
KSC1 090501Z 28002KT 03/01 A3033 RMK A01 T00280014  RH  091%=      5-min Rain = 0
KSC1 090502Z 28002KT 03/02 A3033 RMK A01 T00280015  RH  091%=      5-min Rain = 0
KSC1 090503Z 28001KT 03/02 A3033 RMK A01 T00280015  RH  091%=      5-min Rain = 0
KSC1 090504Z 28002KT 03/02 A3033 RMK A01 T00280015  RH  091%=      5-min Rain = 0
KSC1 090505Z 27002KT 03/02 A3033 RMK A01 T00280015  RH  091%=      5-min Rain = 0
KSC1 090506Z 27002KT 03/02 A3033 RMK A01 T00280015  RH  091%=      5-min Rain = 0
KSC1 090507Z 26002KT 03/02 A3033 RMK A01 T00280015  RH  091%=      5-min Rain = 0
KSC1 090508Z 27002KT 03/02 A3033 RMK A01 T00280015  RH  091%=      5-min Rain = 0
KSC1 090509Z 27002KT 03/02 A3033 RMK A01 T00280015  RH  091%=      5-min Rain = 0
KSC1 090510Z 27002KT 03/02 A3033 RMK A01 T00280015  RH  091%=      5-min Rain = 0
KSC1 090511Z 27002KT 03/02 A3033 RMK A01 T00280015  RH  091%=      5-min Rain = 0
KSC1 090512Z 27002KT 03/01 A3033 RMK A01 T00280014  RH  091%=      5-min Rain = 0
KSC1 090513Z 27002KT 03/02 A3033 RMK A01 T00280015  RH  091%=      5-min Rain = 0
KSC1 090514Z 27001KT 03/02 A3032 RMK A01 T00280015  RH  091%=      5-min Rain = 0
KSC1 090515Z 27001KT 03/01 A3032 RMK A01 T00280014  RH  091%=      5-min Rain = 0
KSC1 090516Z 27001KT 03/01 A3032 RMK A01 T00280014  RH  091%=      5-min Rain = 0
KSC1 090517Z 29001KT 03/01 A3032 RMK A01 T00280014  RH  091%=      5-min Rain = 0
KSC1 090518Z 29002KT 03/01 A3032 RMK A01 T00280014  RH  091%=      5-min Rain = 0
KSC1 090519Z 29002KT 03/01 A3032 RMK A01 T00280014  RH  091%=      5-min Rain = 0
KSC1 090520Z 30002KT 03/02 A3032 RMK A01 T00270015  RH  091%=      5-min Rain = 0
KSC1 090521Z 30002KT 03/02 A3032 RMK A01 T00270015  RH  092%=      5-min Rain = 0
KSC1 090522Z 30002KT 03/02 A3032 RMK A01 T00270015  RH  092%=      5-min Rain = 0
KSC1 090523Z 30002KT 03/02 A3032 RMK A01 T00270015  RH  092%=      5-min Rain = 0
KSC1 090524Z 30002KT 03/02 A3032 RMK A01 T00270015  RH  092%=      5-min Rain = 0
KSC1 090525Z 29002KT 03/02 A3032 RMK A01 T00270015  RH  092%=      5-min Rain = 0
KSC1 090526Z 29002KT 03/02 A3032 RMK A01 T00270015  RH  092%=      5-min Rain = 0
KSC1 090527Z 29003KT 03/02 A3032 RMK A01 T00270015  RH  092%=      5-min Rain = 0
KSC1 090528Z 29003KT 03/02 A3032 RMK A01 T00260015  RH  093%=      5-min Rain = 0
KSC1 090529Z 29003KT 03/02 A3032 RMK A01 T00260016  RH  093%=      5-min Rain = 0
KSC1 090530Z 29003KT 03/02 A3032 RMK A01 T00260016  RH  093%=      5-min Rain = 0
KSC1 090531Z 30003KT 03/02 A3032 RMK A01 T00260016  RH  093%=      5-min Rain = 0
KSC1 090532Z 31002KT 03/02 A3032 RMK A01 T00260016  RH  093%=      5-min Rain = 0
KSC1 090533Z 32002KT 03/02 A3032 RMK A01 T00260016  RH  093%=      5-min Rain = 0
KSC1 090534Z 32002KT 03/02 A3032 RMK A01 T00260016  RH  093%=      5-min Rain = 0
KSC1 090535Z 33002KT 03/02 A3032 RMK A01 T00250015  RH  093%=      5-min Rain = 0
KSC1 090536Z 33002KT 03/02 A3032 RMK A01 T00250015  RH  093%=      5-min Rain = 0
KSC1 090537Z 33002KT 03/02 A3032 RMK A01 T00250015  RH  093%=      5-min Rain = 0
KSC1 090538Z 33002KT 02/02 A3032 RMK A01 T00240015  RH  094%=      5-min Rain = 0
KSC1 090539Z 33003KT 02/02 A3032 RMK A01 T00240015  RH  094%=      5-min Rain = 0
KSC1 090540Z 33003KT 02/02 A3032 RMK A01 T00240015  RH  094%=      5-min Rain = 0
KSC1 090541Z 32002KT 02/02 A3032 RMK A01 T00240015  RH  094%=      5-min Rain = 0
KSC1 090542Z 31002KT 02/02 A3032 RMK A01 T00230015  RH  094%=      5-min Rain = 0
KSC1 090543Z 30002KT 02/02 A3032 RMK A01 T00230015  RH  094%=      5-min Rain = 0
KSC1 090544Z 29002KT 02/02 A3032 RMK A01 T00230015  RH  094%=      5-min Rain = 0
KSC1 090545Z 29002KT 02/01 A3032 RMK A01 T00220014  RH  094%=      5-min Rain = 0
KSC1 090546Z 29002KT 02/02 A3032 RMK A01 T00230015  RH  094%=      5-min Rain = 0
KSC1 090547Z 29002KT 02/01 A3032 RMK A01 T00220014  RH  095%=      5-min Rain = 0
KSC1 090548Z 29002KT 02/01 A3032 RMK A01 T00220014  RH  095%=      5-min Rain = 0
KSC1 090549Z 30002KT 02/01 A3032 RMK A01 T00210014  RH  095%=      5-min Rain = 0
KSC1 090550Z 29002KT 02/01 A3032 RMK A01 T00210014  RH  095%=      5-min Rain = 0
KSC1 090551Z 29003KT 02/01 A3032 RMK A01 T00210014  RH  095%=      5-min Rain = 0
KSC1 090552Z 29003KT 02/01 A3032 RMK A01 T00210014  RH  095%=      5-min Rain = 0
KSC1 090553Z 29003KT 02/01 A3032 RMK A01 T00210014  RH  095%=      5-min Rain = 0
KSC1 090554Z 29003KT 02/01 A3033 RMK A01 T00200013  RH  095%=      5-min Rain = 0
KSC1 090555Z 28003KT 02/01 A3033 RMK A01 T00200014  RH  095%=      5-min Rain = 0
KSC1 090556Z 28003KT 02/01 A3033 RMK A01 T00200013  RH  095%=      5-min Rain = 0
KSC1 090557Z 26003KT 02/01 A3032 RMK A01 T00200013  RH  095%=      5-min Rain = 0
KSC1 090558Z 25003KT 02/01 A3032 RMK A01 T00190012  RH  095%=      5-min Rain = 0
KSC1 090559Z 25003KT 02/01 A3032 RMK A01 T00190012  RH  095%=      5-min Rain = 0

Page generated in 0.1396 seconds.